Time,TemperatureF,DewpointF,PressureIn,WindDirection,WindDirectionDegrees,WindSpeedMPH,WindSpeedGustMPH,Humidity,HourlyPrecipIn,Conditions,Clouds,dailyrainin,SoftwareType,DateUTC
2013-01-27 00:00:00,53.4,52.0,30.26,NNE,23,0.0,0.0,95,0.00,CLR,SCT,0.00,WeatherDisplay:10.37,2013-01-27 05:00:00,
2013-01-27 00:01:00,53.3,51.9,30.26,NNE,23,0.0,0.0,95,0.00,CLR,SCT,0.00,WeatherDisplay:10.37,2013-01-27 05:01:00,
2013-01-27 00:05:00,53.4,52.0,30.26,NNE,23,0.0,0.0,95,0.00,CLR,SCT,0.00,WeatherDisplay:10.37,2013-01-27 05:05:00,
2013-01-27 00:06:00,53.4,52.0,30.26,NNE,23,0.0,0.0,95,0.00,CLR,SCT,0.00,WeatherDisplay:10.37,2013-01-27 05:06:00,
2013-01-27 00:07:00,53.5,52.1,30.26,NNE,23,0.0,0.0,95,0.00,CLR,SCT,0.00,WeatherDisplay:10.37,2013-01-27 05:07:00,
2013-01-27 00:10:00,53.7,52.6,30.26,NNE,23,0.0,0.0,96,0.00,CLR,SCT,0.00,WeatherDisplay:10.37,2013-01-27 05:10:00,
2013-01-27 00:11:00,53.7,52.6,30.26,NNE,23,0.0,0.0,96,0.00,CLR,SCT,0.00,WeatherDisplay:10.37,2013-01-27 05:11:00,
2013-01-27 00:12:00,53.9,52.8,30.26,NNE,23,0.0,0.0,96,0.00,CLR,SCT,0.00,WeatherDisplay:10.37,2013-01-27 05:12:00,
2013-01-27 00:16:00,54.1,53.0,30.26,NNE,23,0.0,0.0,96,0.00,CLR,SCT,0.00,WeatherDisplay:10.37,2013-01-27 05:16:00,
2013-01-27 00:17:00,54.1,53.0,30.26,NNE,23,0.0,0.0,96,0.00,CLR,SCT,0.00,WeatherDisplay:10.37,2013-01-27 05:17:00,
2013-01-27 00:21:00,53.9,52.8,30.26,NNE,23,0.0,0.0,96,0.00,CLR,SCT,0.00,WeatherDisplay:10.37,2013-01-27 05:21:00,
2013-01-27 00:22:00,53.9,52.8,30.26,NNE,23,0.0,0.0,96,0.00,CLR,SCT,0.00,WeatherDisplay:10.37,2013-01-27 05:22:00,
2013-01-27 00:27:00,53.7,52.6,30.25,NNE,23,0.0,0.0,96,0.00,CLR,SCT,0.00,WeatherDisplay:10.37,2013-01-27 05:27:00,
2013-01-27 00:32:00,54.5,53.7,30.25,NNE,23,0.0,0.0,97,0.00,CLR,SCT,0.00,WeatherDisplay:10.37,2013-01-27 05:32:00,
2013-01-27 00:37:00,54.7,53.9,30.25,NNE,23,0.0,0.0,97,0.00,CLR,SCT,0.00,WeatherDisplay:10.37,2013-01-27 05:37:00,
2013-01-27 00:42:00,54.3,53.2,30.25,NNE,23,0.0,0.0,96,0.00,CLR,SCT,0.00,WeatherDisplay:10.37,2013-01-27 05:42:00,
2013-01-27 00:43:00,54.3,53.2,30.25,NNE,23,0.0,0.0,96,0.00,CLR,SCT,0.00,WeatherDisplay:10.37,2013-01-27 05:43:00,
2013-01-27 00:47:00,53.8,52.7,30.25,NNE,23,0.0,0.0,96,0.00,CLR,SCT,0.00,WeatherDisplay:10.37,2013-01-27 05:47:00,
2013-01-27 00:48:00,53.7,52.6,30.25,NNE,23,0.0,0.0,96,0.00,CLR,SCT,0.00,WeatherDisplay:10.37,2013-01-27 05:48:00,
2013-01-27 00:52:00,53.3,52.2,30.25,NNE,23,0.0,0.0,96,0.00,CLR,SCT,0.00,WeatherDisplay:10.37,2013-01-27 05:52:00,
2013-01-27 00:53:00,53.4,52.3,30.25,NNE,23,0.0,0.0,96,0.00,CLR,SCT,0.00,WeatherDisplay:10.37,2013-01-27 05:53:00,
2013-01-27 00:57:00,53.0,51.9,30.25,NNE,23,0.0,0.0,96,0.00,CLR,SCT,0.00,WeatherDisplay:10.37,2013-01-27 05:57:00,
2013-01-27 00:58:00,53.0,51.9,30.25,NNE,23,0.0,0.0,96,0.00,CLR,SCT,0.00,WeatherDisplay:10.37,2013-01-27 05:58:00,
2013-01-27 01:03:00,53.4,52.6,30.26,NNE,23,0.0,0.0,97,0.00,CLR,SCT,0.00,WeatherDisplay:10.37,2013-01-27 06:03:00,
2013-01-27 01:08:00,54.1,53.5,30.26,NNE,23,0.0,0.0,98,0.00,CLR,SCT,0.00,WeatherDisplay:10.37,2013-01-27 06:08:00,
2013-01-27 01:13:00,54.6,54.0,30.26,NNE,23,0.0,0.0,98,0.00,CLR,SCT,0.00,WeatherDisplay:10.37,2013-01-27 06:13:00,
2013-01-27 01:18:00,54.1,53.3,30.26,NNE,23,0.0,0.0,97,0.00,CLR,SCT,0.00,WeatherDisplay:10.37,2013-01-27 06:18:00,
2013-01-27 01:19:00,54.0,53.2,30.26,NNE,23,0.0,0.0,97,0.00,CLR,SCT,0.00,WeatherDisplay:10.37,2013-01-27 06:19:00,
2013-01-27 01:23:00,53.6,52.5,30.26,NNE,23,0.0,0.0,96,0.00,CLR,SCT,0.00,WeatherDisplay:10.37,2013-01-27 06:23:00,
2013-01-27 01:24:00,53.5,52.4,30.26,NNE,23,0.0,0.0,96,0.00,CLR,SCT,0.00,WeatherDisplay:10.37,2013-01-27 06:24:00,
2013-01-27 01:28:00,53.4,52.3,30.26,NNE,23,0.0,0.0,96,0.00,CLR,SCT,0.00,WeatherDisplay:10.37,2013-01-27 06:28:00,
2013-01-27 01:29:00,53.3,52.2,30.26,NNE,23,0.0,0.0,96,0.00,CLR,SCT,0.00,WeatherDisplay:10.37,2013-01-27 06:29:00,
2013-01-27 01:33:00,53.2,52.4,30.26,NNE,23,0.0,0.0,97,0.00,CLR,SCT,0.00,WeatherDisplay:10.37,2013-01-27 06:33:00,
2013-01-27 01:34:00,53.2,52.4,30.26,NNE,23,0.0,0.0,97,0.00,CLR,SCT,0.00,WeatherDisplay:10.37,2013-01-27 06:34:00,
2013-01-27 01:38:00,53.3,52.5,30.26,NNE,23,0.0,0.0,97,0.00,CLR,SCT,0.00,WeatherDisplay:10.37,2013-01-27 06:38:00,
2013-01-27 01:39:00,53.4,52.6,30.26,NNE,23,0.0,0.0,97,0.00,CLR,SCT,0.00,WeatherDisplay:10.37,2013-01-27 06:39:00,
2013-01-27 01:43:00,53.5,52.7,30.26,NNE,23,0.0,0.0,97,0.00,CLR,SCT,0.00,WeatherDisplay:10.37,2013-01-27 06:43:00,
2013-01-27 01:44:00,53.4,52.6,30.26,NNE,23,0.0,0.0,97,0.00,CLR,SCT,0.00,WeatherDisplay:10.37,2013-01-27 06:44:00,
2013-01-27 01:48:00,53.1,52.3,30.26,NNE,23,0.0,0.0,97,0.00,CLR,SCT,0.00,WeatherDisplay:10.37,2013-01-27 06:48:00,
2013-01-27 01:49:00,53.0,51.9,30.26,NNE,23,0.0,0.0,96,0.00,CLR,SCT,0.00,WeatherDisplay:10.37,2013-01-27 06:49:00,
2013-01-27 01:50:00,53.0,51.9,30.26,NNE,23,0.0,0.0,96,0.00,CLR,SCT,0.00,WeatherDisplay:10.37,2013-01-27 06:50:00,
2013-01-27 01:53:00,52.9,52.1,30.26,NNE,23,0.0,0.0,97,0.00,CLR,SCT,0.00,WeatherDisplay:10.37,2013-01-27 06:53:00,
2013-01-27 01:54:00,53.0,52.2,30.26,NNE,23,0.0,0.0,97,0.00,CLR,SCT,0.00,WeatherDisplay:10.37,2013-01-27 06:54:00,
2013-01-27 01:55:00,53.0,52.2,30.26,NNE,23,0.0,0.0,97,0.00,CLR,SCT,0.00,WeatherDisplay:10.37,2013-01-27 06:55:00,
2013-01-27 01:59:00,53.0,52.2,30.26,NNE,23,0.0,0.0,97,0.00,CLR,SCT,0.00,WeatherDisplay:10.37,2013-01-27 06:59:00,
2013-01-27 02:00:00,53.0,52.2,30.26,NNE,23,0.0,0.0,97,0.00,CLR,SCT,0.00,WeatherDisplay:10.37,2013-01-27 07:00:00,
2013-01-27 02:04:00,52.7,51.9,30.26,NNE,23,0.0,0.0,97,0.00,CLR,SCT,0.00,WeatherDisplay:10.37,2013-01-27 07:04:00,
2013-01-27 02:05:00,52.6,51.8,30.26,NNE,23,0.0,0.0,97,0.00,CLR,SCT,0.00,WeatherDisplay:10.37,2013-01-27 07:05:00,
2013-01-27 02:09:00,52.3,51.5,30.26,NNE,23,0.0,0.0,97,0.00,CLR,SCT,0.00,WeatherDisplay:10.37,2013-01-27 07:09:00,
2013-01-27 02:13:00,52.2,51.4,30.26,NNE,23,0.0,0.0,97,0.00,CLR,SCT,0.00,WeatherDisplay:10.37,2013-01-27 07:13:00,
2013-01-27 02:14:00,52.2,51.4,30.26,NNE,23,0.0,0.0,97,0.00,CLR,SCT,0.00,WeatherDisplay:10.37,2013-01-27 07:14:00,
2013-01-27 02:18:00,52.4,51.6,30.26,NNE,23,0.0,0.0,97,0.00,CLR,SCT,0.00,WeatherDisplay:10.37,2013-01-27 07:18:00,
2013-01-27 02:19:00,52.4,51.6,30.26,NNE,23,0.0,0.0,97,0.00,CLR,SCT,0.00,WeatherDisplay:10.37,2013-01-27 07:19:00,
2013-01-27 02:23:00,52.3,51.5,30.26,NNE,23,0.0,0.0,97,0.00,CLR,SCT,0.00,WeatherDisplay:10.37,2013-01-27 07:23:00,
2013-01-27 02:25:00,52.2,51.4,30.26,NNE,23,0.0,0.0,97,0.00,CLR,SCT,0.00,WeatherDisplay:10.37,2013-01-27 07:25:00,
2013-01-27 02:28:00,51.9,51.1,30.26,NNE,23,0.0,0.0,97,0.00,CLR,SCT,0.00,WeatherDisplay:10.37,2013-01-27 07:28:00,
2013-01-27 02:30:00,51.9,51.1,30.26,NNE,23,0.0,0.0,97,0.00,CLR,SCT,0.00,WeatherDisplay:10.37,2013-01-27 07:30:00,
2013-01-27 02:33:00,51.6,50.8,30.26,NNE,23,0.0,0.0,97,0.00,CLR,SCT,0.00,WeatherDisplay:10.37,2013-01-27 07:33:00,
2013-01-27 02:35:00,51.5,50.7,30.26,NNE,23,0.0,0.0,97,0.00,CLR,SCT,0.00,WeatherDisplay:10.37,2013-01-27 07:35:00,
2013-01-27 02:38:00,51.3,50.5,30.26,NNE,23,0.0,0.0,97,0.00,CLR,SCT,0.00,WeatherDisplay:10.37,2013-01-27 07:38:00,
2013-01-27 02:39:00,51.2,50.4,30.26,NNE,23,0.0,0.0,97,0.00,CLR,SCT,0.00,WeatherDisplay:10.37,2013-01-27 07:39:00,
2013-01-27 02:40:00,51.2,50.4,30.26,NNE,23,0.0,0.0,97,0.00,CLR,SCT,0.00,WeatherDisplay:10.37,2013-01-27 07:40:00,
2013-01-27 02:43:00,50.9,50.1,30.26,NNE,23,0.0,0.0,97,0.00,CLR,SCT,0.00,WeatherDisplay:10.37,2013-01-27 07:43:00,
2013-01-27 02:44:00,50.9,50.1,30.26,NNE,23,0.0,0.0,97,0.00,CLR,SCT,0.00,WeatherDisplay:10.37,2013-01-27 07:44:00,
2013-01-27 02:45:00,50.8,50.0,30.26,NNE,23,0.0,0.0,97,0.00,CLR,SCT,0.00,WeatherDisplay:10.37,2013-01-27 07:45:00,
2013-01-27 02:48:00,51.2,50.4,30.26,NNE,23,0.0,0.0,97,0.00,CLR,SCT,0.00,WeatherDisplay:10.37,2013-01-27 07:48:00,
2013-01-27 02:49:00,51.2,50.4,30.26,NNE,23,0.0,0.0,97,0.00,CLR,SCT,0.00,WeatherDisplay:10.37,2013-01-27 07:49:00,
2013-01-27 02:50:00,51.6,51.1,30.26,NNE,23,0.0,0.0,98,0.00,CLR,SCT,0.00,WeatherDisplay:10.37,2013-01-27 07:50:00,
2013-01-27 02:53:00,52.0,51.5,30.26,NNE,23,0.0,0.0,98,0.00,CLR,SCT,0.00,WeatherDisplay:10.37,2013-01-27 07:53:00,
2013-01-27 02:54:00,52.0,51.5,30.26,NNE,23,0.0,0.0,98,0.00,CLR,SCT,0.00,WeatherDisplay:10.37,2013-01-27 07:54:00,
2013-01-27 02:55:00,52.1,51.6,30.26,NNE,23,0.0,0.0,98,0.00,CLR,SCT,0.00,WeatherDisplay:10.37,2013-01-27 07:55:00,
2013-01-27 02:58:00,52.1,51.6,30.26,NNE,23,0.0,0.0,98,0.00,CLR,SCT,0.00,WeatherDisplay:10.37,2013-01-27 07:58:00,
2013-01-27 02:59:00,52.1,51.6,30.26,NNE,23,0.0,0.0,98,0.00,CLR,SCT,0.00,WeatherDisplay:10.37,2013-01-27 07:59:00,
2013-01-27 03:00:00,52.0,51.5,30.26,NNE,23,0.0,0.0,98,0.00,CLR,SCT,0.00,WeatherDisplay:10.37,2013-01-27 08:00:00,
2013-01-27 03:04:00,51.8,51.3,30.26,NNE,23,0.0,0.0,98,0.00,CLR,SCT,0.00,WeatherDisplay:10.37,2013-01-27 08:04:00,
2013-01-27 03:05:00,51.7,50.9,30.26,NNE,23,0.0,0.0,97,0.00,CLR,SCT,0.00,WeatherDisplay:10.37,2013-01-27 08:05:00,
2013-01-27 03:09:00,51.4,50.6,30.26,NNE,23,0.0,0.0,97,0.00,CLR,SCT,0.00,WeatherDisplay:10.37,2013-01-27 08:09:00,
2013-01-27 03:10:00,51.3,50.5,30.26,NNE,23,0.0,0.0,97,0.00,CLR,SCT,0.00,WeatherDisplay:10.37,2013-01-27 08:10:00,
2013-01-27 03:11:00,51.3,50.5,30.26,NNE,23,0.0,0.0,97,0.00,CLR,SCT,0.00,WeatherDisplay:10.37,2013-01-27 08:11:00,
2013-01-27 03:14:00,51.0,50.2,30.26,NNE,23,0.0,0.0,97,0.00,CLR,SCT,0.00,WeatherDisplay:10.37,2013-01-27 08:14:00,
2013-01-27 03:16:00,51.0,50.2,30.26,NNE,23,0.0,0.0,97,0.00,CLR,SCT,0.00,WeatherDisplay:10.37,2013-01-27 08:16:00,
2013-01-27 03:19:00,50.7,49.9,30.26,NNE,23,0.0,0.0,97,0.00,CLR,SCT,0.00,WeatherDisplay:10.37,2013-01-27 08:19:00,
2013-01-27 03:21:00,50.6,49.8,30.26,NNE,23,0.0,0.0,97,0.00,CLR,SCT,0.00,WeatherDisplay:10.37,2013-01-27 08:21:00,
2013-01-27 03:24:00,50.4,49.6,30.26,NNE,23,0.0,0.0,97,0.00,CLR,SCT,0.00,WeatherDisplay:10.37,2013-01-27 08:24:00,
2013-01-27 03:25:00,50.4,49.6,30.26,NNE,23,0.0,0.0,97,0.00,CLR,SCT,0.00,WeatherDisplay:10.37,2013-01-27 08:25:00,
2013-01-27 03:26:00,50.4,49.6,30.26,NNE,23,0.0,0.0,97,0.00,CLR,SCT,0.00,WeatherDisplay:10.37,2013-01-27 08:26:00,
2013-01-27 03:27:00,50.4,49.6,30.26,NNE,23,0.0,0.0,97,0.00,CLR,SCT,0.00,WeatherDisplay:10.37,2013-01-27 08:27:00,
2013-01-27 03:29:00,50.4,49.6,30.26,NNE,23,0.0,0.0,97,0.00,CLR,SCT,0.00,WeatherDisplay:10.37,2013-01-27 08:29:00,
2013-01-27 03:30:00,50.5,49.7,30.26,NNE,23,0.0,0.0,97,0.00,CLR,SCT,0.00,WeatherDisplay:10.37,2013-01-27 08:30:00,
2013-01-27 03:31:00,50.5,49.7,30.26,NNE,23,0.0,0.0,97,0.00,CLR,SCT,0.00,WeatherDisplay:10.37,2013-01-27 08:31:00,
2013-01-27 03:32:00,50.5,49.7,30.26,NNE,23,0.0,0.0,97,0.00,CLR,SCT,0.00,WeatherDisplay:10.37,2013-01-27 08:32:00,
2013-01-27 03:34:00,50.6,50.1,30.26,NNE,23,0.0,0.0,98,0.00,CLR,SCT,0.00,WeatherDisplay:10.37,2013-01-27 08:34:00,
2013-01-27 03:35:00,50.6,50.1,30.26,NNE,23,0.0,0.0,98,0.00,CLR,SCT,0.00,WeatherDisplay:10.37,2013-01-27 08:35:00,
2013-01-27 03:36:00,50.6,50.1,30.26,NNE,23,0.0,0.0,98,0.00,CLR,SCT,0.00,WeatherDisplay:10.37,2013-01-27 08:36:00,
2013-01-27 03:37:00,50.6,50.1,30.26,NNE,23,0.0,0.0,98,0.00,CLR,SCT,0.00,WeatherDisplay:10.37,2013-01-27 08:37:00,
2013-01-27 03:39:00,50.6,50.1,30.26,NNE,23,0.0,0.0,98,0.00,CLR,SCT,0.00,WeatherDisplay:10.37,2013-01-27 08:39:00,
2013-01-27 03:40:00,50.6,50.1,30.26,NNE,23,0.0,0.0,98,0.00,CLR,SCT,0.00,WeatherDisplay:10.37,2013-01-27 08:40:00,
2013-01-27 03:41:00,50.6,49.8,30.26,NNE,23,0.0,0.0,97,0.00,CLR,SCT,0.00,WeatherDisplay:10.37,2013-01-27 08:41:00,
2013-01-27 03:42:00,50.6,49.8,30.26,NNE,23,0.0,0.0,97,0.00,CLR,SCT,0.00,WeatherDisplay:10.37,2013-01-27 08:42:00,
2013-01-27 03:45:00,50.5,49.7,30.26,NNE,23,0.0,0.0,97,0.00,CLR,SCT,0.00,WeatherDisplay:10.37,2013-01-27 08:45:00,
2013-01-27 03:47:00,50.4,49.6,30.26,NNE,23,0.0,0.0,97,0.00,CLR,SCT,0.00,WeatherDisplay:10.37,2013-01-27 08:47:00,
2013-01-27 03:50:00,50.3,49.5,30.26,NNE,23,0.0,0.0,97,0.00,CLR,SCT,0.00,WeatherDisplay:10.37,2013-01-27 08:50:00,
2013-01-27 03:52:00,50.3,49.5,30.26,NNE,23,0.0,0.0,97,0.00,CLR,SCT,0.00,WeatherDisplay:10.37,2013-01-27 08:52:00,
2013-01-27 03:55:00,50.2,49.4,30.26,NNE,23,0.0,0.0,97,0.00,CLR,SCT,0.00,WeatherDisplay:10.37,2013-01-27 08:55:00,
2013-01-27 03:57:00,50.2,49.4,30.26,NNE,23,0.0,0.0,97,0.00,CLR,SCT,0.00,WeatherDisplay:10.37,2013-01-27 08:57:00,
2013-01-27 04:00:00,50.1,49.3,30.26,NNE,23,0.0,0.0,97,0.00,CLR,SCT,0.00,WeatherDisplay:10.37,2013-01-27 09:00:00,
2013-01-27 04:01:00,50.1,49.3,30.26,NNE,23,0.0,0.0,97,0.00,CLR,SCT,0.00,WeatherDisplay:10.37,2013-01-27 09:01:00,
2013-01-27 04:02:00,50.1,49.3,30.26,NNE,23,0.0,0.0,97,0.00,CLR,SCT,0.00,WeatherDisplay:10.37,2013-01-27 09:02:00,
2013-01-27 04:03:00,50.1,49.3,30.26,NNE,23,0.0,0.0,97,0.00,CLR,SCT,0.00,WeatherDisplay:10.37,2013-01-27 09:03:00,
2013-01-27 04:06:00,50.1,49.3,30.26,NNE,23,0.0,0.0,97,0.00,CLR,SCT,0.00,WeatherDisplay:10.37,2013-01-27 09:06:00,
2013-01-27 04:07:00,50.1,49.3,30.26,NNE,23,0.0,0.0,97,0.00,CLR,SCT,0.00,WeatherDisplay:10.37,2013-01-27 09:07:00,
2013-01-27 04:08:00,50.1,49.3,30.26,NNE,23,0.0,0.0,97,0.00,CLR,SCT,0.00,WeatherDisplay:10.37,2013-01-27 09:08:00,
2013-01-27 04:11:00,50.1,49.3,30.26,NNE,23,0.0,0.0,97,0.00,CLR,SCT,0.00,WeatherDisplay:10.37,2013-01-27 09:11:00,
2013-01-27 04:13:00,50.1,49.3,30.26,NNE,23,0.0,0.0,97,0.00,CLR,SCT,0.00,WeatherDisplay:10.37,2013-01-27 09:13:00,
2013-01-27 04:14:00,50.1,49.3,30.26,NNE,23,0.0,0.0,97,0.00,CLR,SCT,0.00,WeatherDisplay:10.37,2013-01-27 09:14:00,
2013-01-27 04:16:00,50.0,49.2,30.26,NNE,23,0.0,0.0,97,0.00,CLR,SCT,0.00,WeatherDisplay:10.37,2013-01-27 09:16:00,
2013-01-27 04:17:00,50.1,49.3,30.26,NNE,23,0.0,0.0,97,0.00,CLR,SCT,0.00,WeatherDisplay:10.37,2013-01-27 09:17:00,
2013-01-27 04:18:00,50.0,49.2,30.26,NNE,23,0.0,0.0,97,0.00,CLR,SCT,0.00,WeatherDisplay:10.37,2013-01-27 09:18:00,
2013-01-27 04:19:00,50.0,49.2,30.26,NNE,23,0.0,0.0,97,0.00,CLR,SCT,0.00,WeatherDisplay:10.37,2013-01-27 09:19:00,
2013-01-27 04:21:00,50.0,49.2,30.26,NNE,23,0.0,0.0,97,0.00,CLR,SCT,0.00,WeatherDisplay:10.37,2013-01-27 09:21:00,
2013-01-27 04:22:00,50.0,49.2,30.26,NNE,23,0.0,0.0,97,0.00,CLR,SCT,0.00,WeatherDisplay:10.37,2013-01-27 09:22:00,
2013-01-27 04:23:00,50.0,49.2,30.26,NNE,23,0.0,0.0,97,0.00,CLR,SCT,0.00,WeatherDisplay:10.37,2013-01-27 09:23:00,
2013-01-27 04:24:00,50.1,49.6,30.26,NNE,23,0.0,0.0,98,0.00,CLR,SCT,0.00,WeatherDisplay:10.37,2013-01-27 09:24:00,
2013-01-27 04:26:00,50.3,49.8,30.26,NNE,23,0.0,0.0,98,0.00,CLR,SCT,0.00,WeatherDisplay:10.37,2013-01-27 09:26:00,
2013-01-27 04:27:00,50.4,49.9,30.26,NNE,23,0.0,0.0,98,0.00,CLR,SCT,0.00,WeatherDisplay:10.37,2013-01-27 09:27:00,
2013-01-27 04:28:00,50.4,49.9,30.26,NNE,23,0.0,0.0,98,0.00,CLR,SCT,0.00,WeatherDisplay:10.37,2013-01-27 09:28:00,
2013-01-27 04:29:00,50.6,50.1,30.26,NNE,23,0.0,0.0,98,0.00,CLR,SCT,0.00,WeatherDisplay:10.37,2013-01-27 09:29:00,
2013-01-27 04:32:00,50.7,50.2,30.26,NNE,23,0.0,0.0,98,0.00,CLR,SCT,0.00,WeatherDisplay:10.37,2013-01-27 09:32:00,
2013-01-27 04:33:00,50.8,50.3,30.26,NNE,23,0.0,0.0,98,0.00,CLR,SCT,0.00,WeatherDisplay:10.37,2013-01-27 09:33:00,
2013-01-27 04:35:00,50.8,50.3,30.26,NNE,23,0.0,0.0,98,0.00,CLR,SCT,0.00,WeatherDisplay:10.37,2013-01-27 09:35:00,
2013-01-27 04:37:00,50.9,50.4,30.26,NNE,23,0.0,0.0,98,0.00,CLR,SCT,0.00,WeatherDisplay:10.37,2013-01-27 09:37:00,
2013-01-27 04:39:00,51.0,50.5,30.26,NNE,23,0.0,0.0,98,0.00,CLR,SCT,0.00,WeatherDisplay:10.37,2013-01-27 09:39:00,
2013-01-27 04:40:00,51.0,50.5,30.26,NNE,23,0.0,0.0,98,0.00,CLR,SCT,0.00,WeatherDisplay:10.37,2013-01-27 09:40:00,
2013-01-27 04:42:00,51.0,50.5,30.26,NNE,23,0.0,0.0,98,0.00,CLR,SCT,0.00,WeatherDisplay:10.37,2013-01-27 09:42:00,
2013-01-27 04:43:00,51.0,50.5,30.26,NNE,23,0.0,0.0,98,0.00,CLR,SCT,0.00,WeatherDisplay:10.37,2013-01-27 09:43:00,
2013-01-27 04:44:00,51.0,50.5,30.26,NNE,23,0.0,0.0,98,0.00,CLR,SCT,0.00,WeatherDisplay:10.37,2013-01-27 09:44:00,
2013-01-27 04:45:00,51.0,50.5,30.26,NNE,23,0.0,0.0,98,0.00,CLR,SCT,0.00,WeatherDisplay:10.37,2013-01-27 09:45:00,
2013-01-27 04:47:00,50.9,50.4,30.26,NNE,23,0.0,0.0,98,0.00,CLR,SCT,0.00,WeatherDisplay:10.37,2013-01-27 09:47:00,
2013-01-27 04:48:00,50.9,50.4,30.26,NNE,23,0.0,0.0,98,0.00,CLR,SCT,0.00,WeatherDisplay:10.37,2013-01-27 09:48:00,
2013-01-27 04:49:00,50.9,50.4,30.26,NNE,23,0.0,0.0,98,0.00,CLR,SCT,0.00,WeatherDisplay:10.37,2013-01-27 09:49:00,
2013-01-27 04:50:00,50.8,50.3,30.26,NNE,23,0.0,0.0,98,0.00,CLR,SCT,0.00,WeatherDisplay:10.37,2013-01-27 09:50:00,
2013-01-27 04:52:00,50.8,50.3,30.26,NNE,23,0.0,0.0,98,0.00,CLR,SCT,0.00,WeatherDisplay:10.37,2013-01-27 09:52:00,
2013-01-27 04:53:00,50.8,50.3,30.26,NNE,23,0.0,0.0,98,0.00,CLR,SCT,0.00,WeatherDisplay:10.37,2013-01-27 09:53:00,
2013-01-27 04:55:00,50.8,50.3,30.26,NNE,23,0.0,0.0,98,0.00,CLR,SCT,0.00,WeatherDisplay:10.37,2013-01-27 09:55:00,
2013-01-27 04:57:00,50.8,50.3,30.26,NNE,23,0.0,0.0,98,0.00,CLR,SCT,0.00,WeatherDisplay:10.37,2013-01-27 09:57:00,
2013-01-27 04:58:00,50.8,50.3,30.26,NNE,23,0.0,0.0,98,0.00,CLR,SCT,0.00,WeatherDisplay:10.37,2013-01-27 09:58:00,
2013-01-27 05:00:00,51.0,50.5,30.26,NNE,23,0.0,0.0,98,0.00,CLR,SCT,0.00,WeatherDisplay:10.37,2013-01-27 10:00:00,
2013-01-27 05:01:00,51.0,50.5,30.26,NNE,23,0.0,0.0,98,0.00,CLR,SCT,0.00,WeatherDisplay:10.37,2013-01-27 10:01:00,
2013-01-27 05:02:00,51.2,50.7,30.26,NNE,23,0.0,0.0,98,0.00,CLR,SCT,0.00,WeatherDisplay:10.37,2013-01-27 10:02:00,
2013-01-27 05:03:00,51.3,50.8,30.26,NNE,23,0.0,0.0,98,0.00,CLR,SCT,0.00,WeatherDisplay:10.37,2013-01-27 10:03:00,
2013-01-27 05:05:00,51.5,51.0,30.26,NNE,23,0.0,0.0,98,0.00,CLR,SCT,0.00,WeatherDisplay:10.37,2013-01-27 10:05:00,
2013-01-27 05:06:00,51.6,51.1,30.26,NNE,23,0.0,0.0,98,0.00,CLR,SCT,0.00,WeatherDisplay:10.37,2013-01-27 10:06:00,
2013-01-27 05:07:00,51.8,51.3,30.26,NNE,23,0.0,0.0,98,0.00,CLR,SCT,0.00,WeatherDisplay:10.37,2013-01-27 10:07:00,
2013-01-27 05:08:00,51.9,51.4,30.26,NNE,23,0.0,0.0,98,0.00,CLR,SCT,0.00,WeatherDisplay:10.37,2013-01-27 10:08:00,
2013-01-27 05:11:00,52.1,51.6,30.26,NNE,23,0.0,0.0,98,0.00,CLR,SCT,0.00,WeatherDisplay:10.37,2013-01-27 10:11:00,
2013-01-27 05:13:00,52.2,51.7,30.26,NNE,23,0.0,0.0,98,0.00,CLR,SCT,0.00,WeatherDisplay:10.37,2013-01-27 10:13:00,
2013-01-27 05:16:00,52.2,51.7,30.26,NNE,23,0.0,0.0,98,0.00,CLR,SCT,0.00,WeatherDisplay:10.37,2013-01-27 10:16:00,
2013-01-27 05:18:00,52.4,51.9,30.26,NNE,23,0.0,0.0,98,0.00,CLR,SCT,0.00,WeatherDisplay:10.37,2013-01-27 10:18:00,
2013-01-27 05:21:00,52.6,52.3,30.26,NNE,23,0.0,0.0,99,0.00,CLR,SCT,0.00,WeatherDisplay:10.37,2013-01-27 10:21:00,
2013-01-27 05:23:00,52.6,52.1,30.27,NNE,23,0.0,0.0,98,0.00,CLR,SCT,0.00,WeatherDisplay:10.37,2013-01-27 10:23:00,
2013-01-27 05:26:00,52.3,51.8,30.27,NNE,23,0.0,0.0,98,0.00,CLR,SCT,0.00,WeatherDisplay:10.37,2013-01-27 10:26:00,
2013-01-27 05:28:00,52.2,51.7,30.27,NNE,23,0.0,0.0,98,0.00,CLR,SCT,0.00,WeatherDisplay:10.37,2013-01-27 10:28:00,
2013-01-27 05:31:00,52.0,51.5,30.26,NNE,23,0.0,0.0,98,0.00,CLR,SCT,0.00,WeatherDisplay:10.37,2013-01-27 10:31:00,
2013-01-27 05:32:00,52.0,51.5,30.26,NNE,23,0.0,0.0,98,0.00,CLR,SCT,0.00,WeatherDisplay:10.37,2013-01-27 10:32:00,
2013-01-27 05:33:00,51.9,51.4,30.27,NNE,23,0.0,0.0,98,0.00,CLR,SCT,0.00,WeatherDisplay:10.37,2013-01-27 10:33:00,
2013-01-27 05:36:00,51.7,51.2,30.27,NNE,23,0.0,0.0,98,0.00,CLR,SCT,0.00,WeatherDisplay:10.37,2013-01-27 10:36:00,
2013-01-27 05:37:00,51.6,51.1,30.27,NNE,23,0.0,0.0,98,0.00,CLR,SCT,0.00,WeatherDisplay:10.37,2013-01-27 10:37:00,
2013-01-27 05:38:00,51.5,51.0,30.27,NNE,23,0.0,0.0,98,0.00,CLR,SCT,0.00,WeatherDisplay:10.37,2013-01-27 10:38:00,
2013-01-27 05:39:00,51.5,51.0,30.27,NNE,23,0.0,0.0,98,0.00,CLR,SCT,0.00,WeatherDisplay:10.37,2013-01-27 10:39:00,
2013-01-27 05:41:00,51.3,50.8,30.27,NNE,23,0.0,0.0,98,0.00,CLR,SCT,0.00,WeatherDisplay:10.37,2013-01-27 10:41:00,
2013-01-27 05:42:00,51.2,50.7,30.27,NNE,23,0.0,0.0,98,0.00,CLR,SCT,0.00,WeatherDisplay:10.37,2013-01-27 10:42:00,
2013-01-27 05:43:00,51.2,50.7,30.27,NNE,23,0.0,0.0,98,0.00,CLR,SCT,0.00,WeatherDisplay:10.37,2013-01-27 10:43:00,
2013-01-27 05:44:00,51.1,50.6,30.27,NNE,23,0.0,0.0,98,0.00,CLR,SCT,0.00,WeatherDisplay:10.37,2013-01-27 10:44:00,
2013-01-27 05:47:00,51.0,50.5,30.27,NNE,23,0.0,0.0,98,0.00,CLR,SCT,0.00,WeatherDisplay:10.37,2013-01-27 10:47:00,
2013-01-27 05:48:00,50.9,50.1,30.27,NNE,23,0.0,0.0,97,0.00,CLR,SCT,0.00,WeatherDisplay:10.37,2013-01-27 10:48:00,
2013-01-27 05:49:00,50.8,50.0,30.27,NNE,23,0.0,0.0,97,0.00,CLR,SCT,0.00,WeatherDisplay:10.37,2013-01-27 10:49:00,
2013-01-27 05:52:00,50.6,49.8,30.27,NNE,23,0.0,0.0,97,0.00,CLR,SCT,0.00,WeatherDisplay:10.37,2013-01-27 10:52:00,
2013-01-27 05:53:00,50.5,49.7,30.27,NNE,23,0.0,0.0,97,0.00,CLR,SCT,0.00,WeatherDisplay:10.37,2013-01-27 10:53:00,
2013-01-27 05:54:00,50.5,49.7,30.27,NNE,23,0.0,0.0,97,0.00,CLR,SCT,0.00,WeatherDisplay:10.37,2013-01-27 10:54:00,
2013-01-27 05:57:00,50.3,49.5,30.27,NNE,23,0.0,0.0,97,0.00,CLR,SCT,0.00,WeatherDisplay:10.37,2013-01-27 10:57:00,
2013-01-27 05:58:00,50.2,49.4,30.27,NNE,23,0.0,0.0,97,0.00,CLR,SCT,0.00,WeatherDisplay:10.37,2013-01-27 10:58:00,
2013-01-27 05:59:00,50.2,49.4,30.27,NNE,23,0.0,0.0,97,0.00,CLR,SCT,0.00,WeatherDisplay:10.37,2013-01-27 10:59:00,
2013-01-27 06:02:00,50.0,49.2,30.27,NNE,23,0.0,0.0,97,0.00,CLR,SCT,0.00,WeatherDisplay:10.37,2013-01-27 11:02:00,
2013-01-27 06:03:00,50.0,49.2,30.27,NNE,23,0.0,0.0,97,0.00,CLR,SCT,0.00,WeatherDisplay:10.37,2013-01-27 11:03:00,
2013-01-27 06:04:00,49.9,49.1,30.27,NNE,23,0.0,0.0,97,0.00,CLR,SCT,0.00,WeatherDisplay:10.37,2013-01-27 11:04:00,
2013-01-27 06:07:00,49.9,49.4,30.27,NNE,23,0.0,0.0,98,0.00,CLR,SCT,0.00,WeatherDisplay:10.37,2013-01-27 11:07:00,
2013-01-27 06:08:00,49.9,49.4,30.27,NNE,23,0.0,0.0,98,0.00,CLR,SCT,0.00,WeatherDisplay:10.37,2013-01-27 11:08:00,
2013-01-27 06:09:00,49.9,49.4,30.27,NNE,23,0.0,0.0,98,0.00,CLR,SCT,0.00,WeatherDisplay:10.37,2013-01-27 11:09:00,
2013-01-27 06:12:00,50.2,49.7,30.27,NNE,23,0.0,0.0,98,0.00,CLR,SCT,0.00,WeatherDisplay:10.37,2013-01-27 11:12:00,
2013-01-27 06:13:00,50.2,49.7,30.27,NNE,23,0.0,0.0,98,0.00,CLR,SCT,0.00,WeatherDisplay:10.37,2013-01-27 11:13:00,
2013-01-27 06:14:00,50.2,49.7,30.27,NNE,23,0.0,0.0,98,0.00,CLR,SCT,0.00,WeatherDisplay:10.37,2013-01-27 11:14:00,
2013-01-27 06:17:00,50.3,49.8,30.27,NNE,23,0.0,0.0,98,0.00,CLR,SCT,0.00,WeatherDisplay:10.37,2013-01-27 11:17:00,
2013-01-27 06:18:00,50.3,49.8,30.27,NNE,23,0.0,0.0,98,0.00,CLR,SCT,0.00,WeatherDisplay:10.37,2013-01-27 11:18:00,
2013-01-27 06:19:00,50.3,49.8,30.28,NNE,23,0.0,0.0,98,0.00,CLR,SCT,0.00,WeatherDisplay:10.37,2013-01-27 11:19:00,
2013-01-27 06:22:00,50.1,49.6,30.28,NNE,23,0.0,0.0,98,0.00,CLR,SCT,0.00,WeatherDisplay:10.37,2013-01-27 11:22:00,
2013-01-27 06:23:00,50.1,49.6,30.27,NNE,23,0.0,0.0,98,0.00,CLR,SCT,0.00,WeatherDisplay:10.37,2013-01-27 11:23:00,
2013-01-27 06:24:00,50.1,49.6,30.27,NNE,23,0.0,0.0,98,0.00,CLR,SCT,0.00,WeatherDisplay:10.37,2013-01-27 11:24:00,
2013-01-27 06:25:00,50.0,49.5,30.28,NNE,23,0.0,0.0,98,0.00,CLR,SCT,0.00,WeatherDisplay:10.37,2013-01-27 11:25:00,
2013-01-27 06:28:00,49.9,49.4,30.28,NNE,23,0.0,0.0,98,0.00,CLR,SCT,0.00,WeatherDisplay:10.37,2013-01-27 11:28:00,
2013-01-27 06:29:00,49.9,49.4,30.28,NNE,23,0.0,0.0,98,0.00,CLR,SCT,0.00,WeatherDisplay:10.37,2013-01-27 11:29:00,
2013-01-27 06:30:00,49.9,49.4,30.28,NNE,23,0.0,0.0,98,0.00,CLR,SCT,0.00,WeatherDisplay:10.37,2013-01-27 11:30:00,
2013-01-27 06:33:00,49.8,49.3,30.28,NNE,23,0.0,0.0,98,0.00,CLR,SCT,0.00,WeatherDisplay:10.37,2013-01-27 11:33:00,
2013-01-27 06:34:00,49.7,49.2,30.28,NNE,23,0.0,0.0,98,0.00,CLR,SCT,0.00,WeatherDisplay:10.37,2013-01-27 11:34:00,
2013-01-27 06:35:00,49.7,49.2,30.28,NNE,23,0.0,0.0,98,0.00,CLR,SCT,0.00,WeatherDisplay:10.37,2013-01-27 11:35:00,
2013-01-27 06:38:00,49.7,49.2,30.28,NNE,23,0.0,0.0,98,0.00,CLR,SCT,0.00,WeatherDisplay:10.37,2013-01-27 11:38:00,
2013-01-27 06:40:00,49.6,49.1,30.28,NNE,23,0.0,0.0,98,0.00,CLR,SCT,0.00,WeatherDisplay:10.37,2013-01-27 11:40:00,
2013-01-27 06:43:00,49.5,49.0,30.28,NNE,23,0.0,0.0,98,0.00,CLR,SCT,0.00,WeatherDisplay:10.37,2013-01-27 11:43:00,
2013-01-27 06:44:00,49.5,49.0,30.28,NNE,23,0.0,0.0,98,0.00,CLR,SCT,0.00,WeatherDisplay:10.37,2013-01-27 11:44:00,
2013-01-27 06:45:00,49.5,49.0,30.28,NNE,23,0.0,0.0,98,0.00,CLR,SCT,0.00,WeatherDisplay:10.37,2013-01-27 11:45:00,
2013-01-27 06:48:00,49.4,48.9,30.28,NNE,23,0.0,0.0,98,0.00,CLR,SCT,0.00,WeatherDisplay:10.37,2013-01-27 11:48:00,
2013-01-27 06:49:00,49.4,48.9,30.28,NNE,23,0.0,0.0,98,0.00,CLR,SCT,0.00,WeatherDisplay:10.37,2013-01-27 11:49:00,
2013-01-27 06:50:00,49.4,48.9,30.28,NNE,23,0.0,0.0,98,0.00,CLR,SCT,0.00,WeatherDisplay:10.37,2013-01-27 11:50:00,
2013-01-27 06:53:00,49.3,48.8,30.28,NNE,23,0.0,0.0,98,0.00,CLR,SCT,0.00,WeatherDisplay:10.37,2013-01-27 11:53:00,
2013-01-27 06:54:00,49.3,48.8,30.28,NNE,23,0.0,0.0,98,0.00,CLR,SCT,0.00,WeatherDisplay:10.37,2013-01-27 11:54:00,
2013-01-27 06:55:00,49.3,48.8,30.28,NNE,23,0.0,0.0,98,0.00,CLR,SCT,0.00,WeatherDisplay:10.37,2013-01-27 11:55:00,
2013-01-27 06:58:00,49.4,48.9,30.28,NNE,23,0.0,0.0,98,0.00,CLR,SCT,0.00,WeatherDisplay:10.37,2013-01-27 11:58:00,
2013-01-27 06:59:00,49.5,49.0,30.28,NNE,23,0.0,0.0,98,0.00,CLR,SCT,0.00,WeatherDisplay:10.37,2013-01-27 11:59:00,
2013-01-27 07:00:00,49.4,48.9,30.28,NNE,23,0.0,0.0,98,0.00,CLR,SCT,0.00,WeatherDisplay:10.37,2013-01-27 12:00:00,
2013-01-27 07:03:00,49.5,49.0,30.29,NNE,23,0.0,0.0,98,0.00,CLR,SCT,0.00,WeatherDisplay:10.37,2013-01-27 12:03:00,
2013-01-27 07:04:00,49.6,49.1,30.29,NNE,23,0.0,0.0,98,0.00,CLR,SCT,0.00,WeatherDisplay:10.37,2013-01-27 12:04:00,
2013-01-27 07:05:00,49.6,49.0,30.29,NNE,23,0.0,0.0,98,0.00,CLR,SCT,0.00,WeatherDisplay:10.37,2013-01-27 12:05:00,
2013-01-27 07:06:00,49.6,49.1,30.29,NNE,23,0.0,0.0,98,0.00,CLR,SCT,0.00,WeatherDisplay:10.37,2013-01-27 12:06:00,
2013-01-27 07:08:00,49.8,49.3,30.29,NNE,23,0.0,0.0,98,0.00,CLR,SCT,0.00,WeatherDisplay:10.37,2013-01-27 12:08:00,
2013-01-27 07:09:00,49.9,49.4,30.29,NNE,23,0.0,0.0,98,0.00,CLR,SCT,0.00,WeatherDisplay:10.37,2013-01-27 12:09:00,
2013-01-27 07:10:00,49.9,49.4,30.29,NNE,23,0.0,0.0,98,0.00,CLR,SCT,0.00,WeatherDisplay:10.37,2013-01-27 12:10:00,
2013-01-27 07:11:00,50.1,49.6,30.29,NNE,23,0.0,0.0,98,0.00,CLR,SCT,0.00,WeatherDisplay:10.37,2013-01-27 12:11:00,
2013-01-27 07:13:00,50.4,49.9,30.29,NNE,23,0.0,0.0,98,0.00,CLR,SCT,0.00,WeatherDisplay:10.37,2013-01-27 12:13:00,
2013-01-27 07:14:00,50.5,50.2,30.29,NNE,23,0.0,0.0,99,0.00,CLR,SCT,0.00,WeatherDisplay:10.37,2013-01-27 12:14:00,
2013-01-27 07:15:00,50.5,50.2,30.29,NNE,23,0.0,0.0,99,0.00,CLR,SCT,0.00,WeatherDisplay:10.37,2013-01-27 12:15:00,
2013-01-27 07:16:00,50.5,50.2,30.29,NNE,23,0.0,0.0,99,0.00,CLR,SCT,0.00,WeatherDisplay:10.37,2013-01-27 12:16:00,
2013-01-27 07:19:00,50.6,50.3,30.29,NNE,23,0.0,0.0,99,0.00,CLR,SCT,0.00,WeatherDisplay:10.37,2013-01-27 12:19:00,
2013-01-27 07:20:00,50.6,50.3,30.29,NNE,23,0.0,0.0,99,0.00,CLR,SCT,0.00,WeatherDisplay:10.37,2013-01-27 12:20:00,
2013-01-27 07:21:00,50.6,50.3,30.29,NNE,23,0.0,0.0,99,0.00,CLR,SCT,0.00,WeatherDisplay:10.37,2013-01-27 12:21:00,
2013-01-27 07:24:00,50.6,50.3,30.29,NNE,23,0.0,0.0,99,0.00,CLR,SCT,0.00,WeatherDisplay:10.37,2013-01-27 12:24:00,
2013-01-27 07:25:00,50.6,50.1,30.29,NNE,23,0.0,0.0,98,0.00,CLR,SCT,0.00,WeatherDisplay:10.37,2013-01-27 12:25:00,
2013-01-27 07:26:00,50.6,50.1,30.29,NNE,23,0.0,0.0,98,0.00,CLR,SCT,0.00,WeatherDisplay:10.37,2013-01-27 12:26:00,
2013-01-27 07:29:00,50.7,50.2,30.29,NNE,23,0.0,0.0,98,0.00,CLR,SCT,0.00,WeatherDisplay:10.37,2013-01-27 12:29:00,
2013-01-27 07:30:00,50.7,50.2,30.29,NNE,23,0.0,0.0,98,0.00,CLR,SCT,0.00,WeatherDisplay:10.37,2013-01-27 12:30:00,
2013-01-27 07:31:00,50.8,50.3,30.29,NNE,23,0.0,0.0,98,0.00,CLR,SCT,0.00,WeatherDisplay:10.37,2013-01-27 12:31:00,
2013-01-27 07:34:00,50.8,50.3,30.30,NNE,23,0.0,0.0,98,0.00,CLR,SCT,0.00,WeatherDisplay:10.37,2013-01-27 12:34:00,
2013-01-27 07:35:00,50.8,50.3,30.30,NNE,23,0.0,0.0,98,0.00,CLR,SCT,0.00,WeatherDisplay:10.37,2013-01-27 12:35:00,
2013-01-27 07:36:00,50.8,50.3,30.30,NNE,23,0.0,0.0,98,0.00,CLR,SCT,0.00,WeatherDisplay:10.37,2013-01-27 12:36:00,
2013-01-27 07:39:00,50.8,50.3,30.30,NNE,23,0.0,0.0,98,0.00,CLR,SCT,0.00,WeatherDisplay:10.37,2013-01-27 12:39:00,
2013-01-27 07:40:00,50.8,50.3,30.30,NNE,23,0.0,0.0,98,0.00,CLR,SCT,0.00,WeatherDisplay:10.37,2013-01-27 12:40:00,
2013-01-27 07:41:00,50.8,50.3,30.30,NNE,23,0.0,0.0,98,0.00,CLR,SCT,0.00,WeatherDisplay:10.37,2013-01-27 12:41:00,
2013-01-27 07:44:00,51.0,50.5,30.30,NNE,23,0.0,0.0,98,0.00,CLR,SCT,0.00,WeatherDisplay:10.37,2013-01-27 12:44:00,
2013-01-27 07:45:00,51.0,50.5,30.30,NNE,23,0.0,0.0,98,0.00,CLR,SCT,0.00,WeatherDisplay:10.37,2013-01-27 12:45:00,
2013-01-27 07:46:00,51.0,50.5,30.30,NNE,23,0.0,0.0,98,0.00,CLR,SCT,0.00,WeatherDisplay:10.37,2013-01-27 12:46:00,
2013-01-27 07:50:00,51.2,50.7,30.30,NNE,23,0.0,0.0,98,0.00,CLR,SCT,0.00,WeatherDisplay:10.37,2013-01-27 12:50:00,
2013-01-27 07:51:00,51.3,50.8,30.30,NNE,23,0.0,0.0,98,0.00,CLR,SCT,0.00,WeatherDisplay:10.37,2013-01-27 12:51:00,
2013-01-27 07:55:00,51.4,50.9,30.30,NNE,23,0.0,0.0,98,0.00,CLR,SCT,0.00,WeatherDisplay:10.37,2013-01-27 12:55:00,
2013-01-27 07:56:00,51.4,50.9,30.30,NNE,23,0.0,0.0,98,0.00,CLR,SCT,0.00,WeatherDisplay:10.37,2013-01-27 12:56:00,
2013-01-27 07:57:00,51.5,51.0,30.30,NNE,23,0.0,0.0,98,0.00,CLR,SCT,0.00,WeatherDisplay:10.37,2013-01-27 12:57:00,
2013-01-27 08:00:00,51.6,51.1,30.30,NNE,23,0.0,0.0,98,0.00,CLR,SCT,0.00,WeatherDisplay:10.37,2013-01-27 13:00:00,
2013-01-27 08:01:00,51.7,51.4,30.30,NNE,23,0.0,0.0,99,0.00,CLR,SCT,0.00,WeatherDisplay:10.37,2013-01-27 13:01:00,
2013-01-27 08:02:00,51.8,51.5,30.30,NNE,23,0.0,0.0,99,0.00,CLR,SCT,0.00,WeatherDisplay:10.37,2013-01-27 13:02:00,
2013-01-27 08:05:00,51.9,51.6,30.30,NNE,23,0.0,0.0,99,0.00,CLR,SCT,0.00,WeatherDisplay:10.37,2013-01-27 13:05:00,
2013-01-27 08:06:00,51.9,51.6,30.30,NNE,23,0.0,0.0,99,0.00,CLR,SCT,0.00,WeatherDisplay:10.37,2013-01-27 13:06:00,
2013-01-27 08:08:00,52.0,51.7,30.30,NNE,23,0.0,0.0,99,0.00,CLR,SCT,0.00,WeatherDisplay:10.37,2013-01-27 13:08:00,
2013-01-27 08:10:00,52.2,51.9,30.30,NNE,23,0.0,0.0,99,0.00,CLR,SCT,0.00,WeatherDisplay:10.37,2013-01-27 13:10:00,
2013-01-27 08:11:00,52.2,51.9,30.30,NNE,23,0.0,0.0,99,0.00,CLR,SCT,0.00,WeatherDisplay:10.37,2013-01-27 13:11:00,
2013-01-27 08:13:00,52.3,52.0,30.30,NNE,23,0.0,0.0,99,0.00,CLR,SCT,0.00,WeatherDisplay:10.37,2013-01-27 13:13:00,
2013-01-27 08:15:00,52.4,52.1,30.30,NNE,23,0.0,0.0,99,0.00,CLR,SCT,0.00,WeatherDisplay:10.37,2013-01-27 13:15:00,
2013-01-27 08:16:00,52.4,52.1,30.30,NNE,23,0.0,0.0,99,0.00,CLR,SCT,0.00,WeatherDisplay:10.37,2013-01-27 13:16:00,
2013-01-27 08:18:00,52.5,52.2,30.30,NNE,23,0.0,0.0,99,0.00,CLR,SCT,0.00,WeatherDisplay:10.37,2013-01-27 13:18:00,
2013-01-27 08:20:00,52.6,52.3,30.30,NNE,23,0.0,0.0,99,0.00,CLR,SCT,0.00,WeatherDisplay:10.37,2013-01-27 13:20:00,
2013-01-27 08:21:00,52.6,52.3,30.30,NNE,23,0.0,0.0,99,0.00,CLR,SCT,0.00,WeatherDisplay:10.37,2013-01-27 13:21:00,
2013-01-27 08:23:00,52.6,52.3,30.30,NNE,23,0.0,0.0,99,0.00,CLR,SCT,0.00,WeatherDisplay:10.37,2013-01-27 13:23:00,
2013-01-27 08:25:00,52.7,52.4,30.31,NNE,23,0.0,0.0,99,0.00,CLR,SCT,0.00,WeatherDisplay:10.37,2013-01-27 13:25:00,
2013-01-27 08:26:00,52.7,52.4,30.30,NNE,23,0.0,0.0,99,0.00,CLR,SCT,0.00,WeatherDisplay:10.37,2013-01-27 13:26:00,
2013-01-27 08:28:00,52.8,52.5,30.31,NNE,23,0.0,0.0,99,0.00,CLR,SCT,0.00,WeatherDisplay:10.37,2013-01-27 13:28:00,
2013-01-27 08:30:00,53.0,52.7,30.31,NNE,23,0.0,0.0,99,0.00,CLR,SCT,0.00,WeatherDisplay:10.37,2013-01-27 13:30:00,
2013-01-27 08:31:00,53.1,52.8,30.31,NNE,23,0.0,0.0,99,0.00,CLR,SCT,0.00,WeatherDisplay:10.37,2013-01-27 13:31:00,
2013-01-27 08:33:00,53.3,53.0,30.31,NNE,23,0.0,0.0,99,0.00,CLR,SCT,0.00,WeatherDisplay:10.37,2013-01-27 13:33:00,
2013-01-27 08:35:00,53.5,53.2,30.31,NNE,23,0.0,0.0,99,0.00,CLR,SCT,0.00,WeatherDisplay:10.37,2013-01-27 13:35:00,
2013-01-27 08:36:00,53.7,53.4,30.31,NNE,23,0.0,0.0,99,0.00,CLR,SCT,0.00,WeatherDisplay:10.37,2013-01-27 13:36:00,
2013-01-27 08:38:00,53.9,53.6,30.31,NNE,23,0.0,0.0,99,0.00,CLR,SCT,0.00,WeatherDisplay:10.37,2013-01-27 13:38:00,
2013-01-27 08:40:00,54.1,53.8,30.31,NNE,23,0.0,0.0,99,0.00,CLR,SCT,0.00,WeatherDisplay:10.37,2013-01-27 13:40:00,
2013-01-27 08:41:00,54.2,53.9,30.31,NNE,23,0.0,0.0,99,0.00,CLR,SCT,0.00,WeatherDisplay:10.37,2013-01-27 13:41:00,
2013-01-27 08:42:00,54.3,54.0,30.31,NNE,23,0.0,0.0,99,0.00,CLR,SCT,0.00,WeatherDisplay:10.37,2013-01-27 13:42:00,
2013-01-27 08:44:00,54.5,54.2,30.31,NNE,23,0.0,0.0,99,0.00,CLR,SCT,0.00,WeatherDisplay:10.37,2013-01-27 13:44:00,
2013-01-27 08:46:00,54.7,54.4,30.31,NNE,23,0.0,0.0,99,0.00,CLR,SCT,0.00,WeatherDisplay:10.37,2013-01-27 13:46:00,
2013-01-27 08:47:00,54.8,54.5,30.31,NNE,23,0.0,0.0,99,0.00,CLR,SCT,0.00,WeatherDisplay:10.37,2013-01-27 13:47:00,
2013-01-27 08:49:00,55.1,54.8,30.31,NNE,23,0.0,0.0,99,0.00,CLR,SCT,0.00,WeatherDisplay:10.37,2013-01-27 13:49:00,
2013-01-27 08:51:00,55.4,55.1,30.31,NNE,23,0.0,0.0,99,0.00,CLR,SCT,0.00,WeatherDisplay:10.37,2013-01-27 13:51:00,
2013-01-27 08:52:00,55.5,55.2,30.31,NNE,23,0.0,0.0,99,0.00,CLR,SCT,0.00,WeatherDisplay:10.37,2013-01-27 13:52:00,
2013-01-27 08:54:00,55.9,55.6,30.32,NNE,23,0.0,0.0,99,0.00,CLR,SCT,0.00,WeatherDisplay:10.37,2013-01-27 13:54:00,
2013-01-27 08:56:00,56.2,55.9,30.32,NNE,23,0.0,0.0,99,0.00,CLR,SCT,0.00,WeatherDisplay:10.37,2013-01-27 13:56:00,
2013-01-27 08:57:00,56.3,56.0,30.32,NNE,23,0.0,0.0,99,0.00,CLR,SCT,0.00,WeatherDisplay:10.37,2013-01-27 13:57:00,
2013-01-27 08:59:00,56.6,56.3,30.32,NNE,23,0.0,0.0,99,0.00,CLR,SCT,0.00,WeatherDisplay:10.37,2013-01-27 13:59:00,
2013-01-27 09:01:00,56.9,56.6,30.32,NNE,23,0.0,0.0,99,0.00,CLR,SCT,0.00,WeatherDisplay:10.37,2013-01-27 14:01:00,
2013-01-27 09:02:00,57.2,56.9,30.32,NNE,23,0.0,0.0,99,0.00,CLR,SCT,0.00,WeatherDisplay:10.37,2013-01-27 14:02:00,
2013-01-27 09:04:00,57.7,57.4,30.32,NNE,23,0.0,0.0,99,0.00,CLR,SCT,0.00,WeatherDisplay:10.37,2013-01-27 14:04:00,
2013-01-27 09:06:00,58.1,57.8,30.32,NNE,24,0.0,0.0,99,0.00,CLR,SCT,0.00,WeatherDisplay:10.37,2013-01-27 14:06:00,
2013-01-27 09:07:00,58.3,58.0,30.32,NNE,25,0.0,0.0,99,0.00,CLR,SCT,0.00,WeatherDisplay:10.37,2013-01-27 14:07:00,
2013-01-27 09:09:00,58.9,58.6,30.32,NNE,25,0.0,0.0,99,0.00,CLR,SCT,0.00,WeatherDisplay:10.37,2013-01-27 14:09:00,
2013-01-27 09:12:00,59.4,59.1,30.32,NNE,24,0.0,0.0,99,0.00,CLR,SCT,0.00,WeatherDisplay:10.37,2013-01-27 14:12:00,
2013-01-27 09:15:00,59.7,59.4,30.32,NNE,25,0.0,0.0,99,0.00,CLR,SCT,0.00,WeatherDisplay:10.37,2013-01-27 14:15:00,
2013-01-27 09:17:00,60.0,59.7,30.32,NNE,25,0.0,0.0,99,0.00,CLR,SCT,0.00,WeatherDisplay:10.37,2013-01-27 14:17:00,
2013-01-27 09:18:00,60.2,59.9,30.32,NNE,24,0.0,0.0,99,0.00,CLR,SCT,0.00,WeatherDisplay:10.37,2013-01-27 14:18:00,
2013-01-27 09:20:00,60.6,60.3,30.32,NNE,32,1.1,0.0,99,0.00,CLR,SCT,0.00,WeatherDisplay:10.37,2013-01-27 14:20:00,
2013-01-27 09:22:00,60.9,60.6,30.32,ESE,117,0.0,0.0,99,0.00,CLR,SCT,0.00,WeatherDisplay:10.37,2013-01-27 14:22:00,
2013-01-27 09:23:00,61.1,60.8,30.32,South,180,0.0,0.0,99,0.00,CLR,SCT,0.00,WeatherDisplay:10.37,2013-01-27 14:23:00,
2013-01-27 09:25:00,61.4,61.1,30.32,South,177,0.0,0.0,99,0.00,CLR,SCT,0.00,WeatherDisplay:10.37,2013-01-27 14:25:00,
2013-01-27 09:27:00,61.4,61.1,30.32,ESE,108,2.3,2.3,99,0.00,CLR,SCT,0.00,WeatherDisplay:10.37,2013-01-27 14:27:00,
2013-01-27 09:28:00,61.5,61.2,30.32,ESE,108,0.0,0.0,99,0.00,CLR,SCT,0.00,WeatherDisplay:10.37,2013-01-27 14:28:00,
2013-01-27 09:30:00,61.6,61.3,30.32,East,98,1.1,0.0,99,0.00,CLR,SCT,0.00,WeatherDisplay:10.37,2013-01-27 14:30:00,
2013-01-27 09:32:00,61.9,61.6,30.33,ENE,75,0.0,0.0,99,0.00,CLR,SCT,0.00,WeatherDisplay:10.37,2013-01-27 14:32:00,
2013-01-27 09:33:00,62.0,61.7,30.33,ENE,75,0.0,0.0,99,0.00,CLR,SCT,0.00,WeatherDisplay:10.37,2013-01-27 14:33:00,
2013-01-27 09:35:00,62.4,62.1,30.33,ENE,72,0.0,0.1,99,0.00,CLR,SCT,0.00,WeatherDisplay:10.37,2013-01-27 14:35:00,
2013-01-27 09:37:00,62.5,62.2,30.33,ENE,67,1.1,0.0,99,0.00,CLR,SCT,0.00,WeatherDisplay:10.37,2013-01-27 14:37:00,
2013-01-27 09:38:00,62.6,62.3,30.33,ENE,67,1.1,0.0,99,0.00,CLR,SCT,0.00,WeatherDisplay:10.37,2013-01-27 14:38:00,
2013-01-27 09:41:00,62.9,62.6,30.33,NE,53,2.3,2.3,99,0.00,CLR,SCT,0.00,WeatherDisplay:10.37,2013-01-27 14:41:00,
2013-01-27 09:42:00,63.0,62.7,30.33,NE,53,1.1,0.0,99,0.00,CLR,SCT,0.00,WeatherDisplay:10.37,2013-01-27 14:42:00,
2013-01-27 09:43:00,63.1,62.8,30.33,North,11,1.1,1.1,99,0.00,CLR,SCT,0.00,WeatherDisplay:10.37,2013-01-27 14:43:00,
2013-01-27 09:46:00,63.5,63.2,30.33,SSE,164,0.0,0.0,99,0.00,CLR,SCT,0.00,WeatherDisplay:10.37,2013-01-27 14:46:00,
2013-01-27 09:47:00,63.7,63.4,30.33,NE,44,0.0,0.1,99,0.00,CLR,SCT,0.00,WeatherDisplay:10.37,2013-01-27 14:47:00,
2013-01-27 09:48:00,63.9,63.6,30.33,NNE,15,1.1,0.0,99,0.00,CLR,SCT,0.00,WeatherDisplay:10.37,2013-01-27 14:48:00,
2013-01-27 09:51:00,64.3,63.7,30.33,ENE,64,2.3,2.3,98,0.00,CLR,SCT,0.00,WeatherDisplay:10.37,2013-01-27 14:51:00,
2013-01-27 09:52:00,64.4,63.8,30.33,ENE,64,1.1,1.1,98,0.00,CLR,SCT,0.00,WeatherDisplay:10.37,2013-01-27 14:52:00,
2013-01-27 09:53:00,64.5,63.9,30.33,ENE,73,1.1,1.1,98,0.00,CLR,SCT,0.00,WeatherDisplay:10.37,2013-01-27 14:53:00,
2013-01-27 09:54:00,64.5,63.9,30.33,ENE,73,1.1,1.1,98,0.00,CLR,SCT,0.00,WeatherDisplay:10.37,2013-01-27 14:54:00,
2013-01-27 09:57:00,65.1,64.5,30.33,SSW,200,2.3,2.3,98,0.00,CLR,SCT,0.00,WeatherDisplay:10.37,2013-01-27 14:57:00,
2013-01-27 09:58:00,65.4,64.5,30.33,SSW,194,1.1,1.1,97,0.00,CLR,SCT,0.00,WeatherDisplay:10.37,2013-01-27 14:58:00,
2013-01-27 09:59:00,65.4,64.5,30.33,SSW,194,0.0,0.0,97,0.00,CLR,SCT,0.00,WeatherDisplay:10.37,2013-01-27 14:59:00,
2013-01-27 10:02:00,65.9,64.4,30.33,ESE,106,1.1,1.1,95,0.00,CLR,SCT,0.00,WeatherDisplay:10.37,2013-01-27 15:02:00,
2013-01-27 10:03:00,66.1,64.3,30.33,ESE,106,0.0,0.1,94,0.00,CLR,SCT,0.00,WeatherDisplay:10.37,2013-01-27 15:03:00,
2013-01-27 10:04:00,66.2,64.4,30.33,ESE,106,1.1,1.1,94,0.00,CLR,SCT,0.00,WeatherDisplay:10.37,2013-01-27 15:04:00,
2013-01-27 10:07:00,67.0,64.3,30.33,ESE,106,0.0,0.0,91,0.00,CLR,SCT,0.00,WeatherDisplay:10.37,2013-01-27 15:07:00,
2013-01-27 10:08:00,67.2,64.5,30.33,East,82,1.0,1.0,91,0.00,CLR,SCT,0.00,WeatherDisplay:10.37,2013-01-27 15:08:00,
2013-01-27 10:09:00,67.3,64.3,30.33,ESE,103,1.1,1.1,90,0.00,CLR,SCT,0.00,WeatherDisplay:10.37,2013-01-27 15:09:00,
2013-01-27 10:12:00,67.7,63.7,30.33,ENE,70,1.1,1.1,87,0.00,CLR,SCT,0.00,WeatherDisplay:10.37,2013-01-27 15:12:00,
2013-01-27 10:13:00,67.7,63.7,30.33,ENE,70,2.3,2.3,87,0.00,CLR,SCT,0.00,WeatherDisplay:10.37,2013-01-27 15:13:00,
2013-01-27 10:14:00,67.9,63.6,30.33,ENE,70,1.1,0.0,86,0.00,CLR,SCT,0.00,WeatherDisplay:10.37,2013-01-27 15:14:00,
2013-01-27 10:17:00,68.3,62.9,30.33,NE,50,1.1,1.1,83,0.00,CLR,SCT,0.00,WeatherDisplay:10.37,2013-01-27 15:17:00,
2013-01-27 10:18:00,68.3,62.9,30.33,ENE,58,2.3,2.3,83,0.00,CLR,SCT,0.00,WeatherDisplay:10.37,2013-01-27 15:18:00,
2013-01-27 10:19:00,68.4,63.0,30.33,NNE,29,2.3,2.3,83,0.00,CLR,SCT,0.00,WeatherDisplay:10.37,2013-01-27 15:19:00,
2013-01-27 10:23:00,69.0,63.3,30.33,ENE,73,1.1,1.1,82,0.00,CLR,SCT,0.00,WeatherDisplay:10.37,2013-01-27 15:23:00,
2013-01-27 10:24:00,69.2,63.1,30.33,NNE,25,2.3,2.3,81,0.00,CLR,SCT,0.00,WeatherDisplay:10.37,2013-01-27 15:24:00,
2013-01-27 10:28:00,69.6,62.8,30.33,NNE,18,0.0,0.0,79,0.00,CLR,SCT,0.00,WeatherDisplay:10.37,2013-01-27 15:28:00,
2013-01-27 10:29:00,69.8,63.0,30.33,ENE,66,2.3,2.3,79,0.00,CLR,SCT,0.00,WeatherDisplay:10.37,2013-01-27 15:29:00,
2013-01-27 10:33:00,70.1,62.2,30.33,NNE,16,1.1,1.1,76,0.00,CLR,SCT,0.00,WeatherDisplay:10.37,2013-01-27 15:33:00,
2013-01-27 10:34:00,70.3,62.4,30.33,NNE,15,1.1,0.0,76,0.00,CLR,SCT,0.00,WeatherDisplay:10.37,2013-01-27 15:34:00,
2013-01-27 10:38:00,70.8,62.5,30.34,NNE,25,1.1,1.1,75,0.00,CLR,SCT,0.00,WeatherDisplay:10.37,2013-01-27 15:38:00,
2013-01-27 10:39:00,70.9,62.6,30.33,NNE,32,1.1,1.1,75,0.00,CLR,SCT,0.00,WeatherDisplay:10.37,2013-01-27 15:39:00,
2013-01-27 10:40:00,70.9,62.6,30.33,NNE,25,0.0,1.0,75,0.00,CLR,SCT,0.00,WeatherDisplay:10.37,2013-01-27 15:40:00,
2013-01-27 10:43:00,71.3,62.6,30.34,ENE,61,1.1,1.1,74,0.00,CLR,SCT,0.00,WeatherDisplay:10.37,2013-01-27 15:43:00,
2013-01-27 10:44:00,71.4,62.7,30.33,NE,44,1.1,1.1,74,0.00,CLR,SCT,0.00,WeatherDisplay:10.37,2013-01-27 15:44:00,
2013-01-27 10:45:00,71.5,62.4,30.34,NE,44,1.1,1.1,73,0.00,CLR,SCT,0.00,WeatherDisplay:10.37,2013-01-27 15:45:00,
2013-01-27 10:48:00,71.7,62.2,30.34,ENE,72,3.5,3.5,72,0.00,CLR,SCT,0.00,WeatherDisplay:10.37,2013-01-27 15:48:00,
2013-01-27 10:49:00,71.7,62.2,30.34,East,84,2.3,2.3,72,0.00,CLR,SCT,0.00,WeatherDisplay:10.37,2013-01-27 15:49:00,
2013-01-27 10:50:00,71.7,62.2,30.33,NE,41,3.5,3.5,72,0.00,CLR,SCT,0.00,WeatherDisplay:10.37,2013-01-27 15:50:00,
2013-01-27 10:53:00,71.8,61.9,30.33,NNE,18,2.3,2.3,71,0.00,CLR,SCT,0.00,WeatherDisplay:10.37,2013-01-27 15:53:00,
2013-01-27 10:54:00,71.9,62.0,30.33,NE,36,1.1,1.1,71,0.00,CLR,SCT,0.00,WeatherDisplay:10.37,2013-01-27 15:54:00,
2013-01-27 10:55:00,71.9,62.0,30.33,NE,56,3.5,3.5,71,0.00,CLR,SCT,0.00,WeatherDisplay:10.37,2013-01-27 15:55:00,
2013-01-27 10:59:00,71.7,61.0,30.34,ENE,60,3.5,3.5,69,0.00,CLR,SCT,0.00,WeatherDisplay:10.37,2013-01-27 15:59:00,
2013-01-27 11:00:00,71.6,60.5,30.33,NE,46,3.5,3.5,68,0.00,CLR,SCT,0.00,WeatherDisplay:10.37,2013-01-27 16:00:00,
2013-01-27 11:04:00,71.6,60.5,30.33,ENE,67,3.5,3.5,68,0.00,CLR,SCT,0.00,WeatherDisplay:10.37,2013-01-27 16:04:00,
2013-01-27 11:05:00,71.8,60.7,30.33,SSW,192,1.1,1.1,68,0.00,CLR,SCT,0.00,WeatherDisplay:10.37,2013-01-27 16:05:00,
2013-01-27 11:09:00,72.3,60.7,30.33,East,82,1.1,1.1,67,0.00,CLR,SCT,0.00,WeatherDisplay:10.37,2013-01-27 16:09:00,
2013-01-27 11:10:00,72.5,60.9,30.33,East,82,2.3,2.3,67,0.00,CLR,SCT,0.00,WeatherDisplay:10.37,2013-01-27 16:10:00,
2013-01-27 11:14:00,73.0,60.5,30.33,ENE,67,1.1,1.1,65,0.00,CLR,SCT,0.00,WeatherDisplay:10.37,2013-01-27 16:14:00,
2013-01-27 11:15:00,73.0,60.1,30.33,North,7,2.3,2.3,64,0.00,CLR,SCT,0.00,WeatherDisplay:10.37,2013-01-27 16:15:00,
2013-01-27 11:16:00,73.2,60.3,30.33,NE,49,2.3,2.3,64,0.00,CLR,SCT,0.00,WeatherDisplay:10.37,2013-01-27 16:16:00,
2013-01-27 11:19:00,73.3,59.9,30.33,NE,43,3.5,3.5,63,0.00,CLR,SCT,0.00,WeatherDisplay:10.37,2013-01-27 16:19:00,
2013-01-27 11:20:00,73.3,59.9,30.33,East,96,2.3,2.3,63,0.00,CLR,SCT,0.00,WeatherDisplay:10.37,2013-01-27 16:20:00,
2013-01-27 11:21:00,73.3,59.9,30.33,NNE,18,3.5,3.5,63,0.00,CLR,SCT,0.00,WeatherDisplay:10.37,2013-01-27 16:21:00,
2013-01-27 11:25:00,73.4,59.6,30.33,NE,41,1.1,1.1,62,0.00,CLR,SCT,0.00,WeatherDisplay:10.37,2013-01-27 16:25:00,
2013-01-27 11:26:00,73.6,59.8,30.33,NE,41,1.1,0.0,62,0.00,CLR,SCT,0.00,WeatherDisplay:10.37,2013-01-27 16:26:00,
2013-01-27 11:30:00,74.3,59.9,30.32,NNE,32,0.0,1.0,61,0.00,CLR,SCT,0.00,WeatherDisplay:10.37,2013-01-27 16:30:00,
2013-01-27 11:31:00,74.5,59.2,30.32,ENE,71,3.5,3.5,59,0.00,CLR,SCT,0.00,WeatherDisplay:10.37,2013-01-27 16:31:00,
2013-01-27 11:35:00,74.6,59.8,30.32,ENE,63,0.0,3.0,60,0.00,CLR,SCT,0.00,WeatherDisplay:10.37,2013-01-27 16:35:00,
2013-01-27 11:36:00,74.9,60.1,30.32,NNE,25,1.1,1.1,60,0.00,CLR,SCT,0.00,WeatherDisplay:10.37,2013-01-27 16:36:00,
2013-01-27 11:40:00,75.3,60.0,30.32,ENE,68,0.0,1.0,59,0.00,CLR,SCT,0.00,WeatherDisplay:10.37,2013-01-27 16:40:00,
2013-01-27 11:41:00,75.5,60.2,30.32,East,94,1.1,1.1,59,0.00,CLR,SCT,0.00,WeatherDisplay:10.37,2013-01-27 16:41:00,
2013-01-27 11:45:00,75.9,60.5,30.32,NE,39,0.0,1.0,59,0.00,CLR,SCT,0.00,WeatherDisplay:10.37,2013-01-27 16:45:00,
2013-01-27 11:46:00,75.9,59.6,30.32,NE,44,2.3,2.3,57,0.00,CLR,SCT,0.00,WeatherDisplay:10.37,2013-01-27 16:46:00,
2013-01-27 11:47:00,75.9,59.6,30.32,ENE,71,2.3,2.3,57,0.00,CLR,SCT,0.00,WeatherDisplay:10.37,2013-01-27 16:47:00,
2013-01-27 11:50:00,75.8,59.5,30.32,NE,49,3.5,3.5,57,0.00,CLR,SCT,0.00,WeatherDisplay:10.37,2013-01-27 16:50:00,
2013-01-27 11:51:00,75.5,59.7,30.32,NNE,27,3.5,3.5,58,0.00,CLR,SCT,0.00,WeatherDisplay:10.37,2013-01-27 16:51:00,
2013-01-27 11:52:00,75.5,59.7,30.32,NE,56,2.3,2.3,58,0.00,CLR,SCT,0.00,WeatherDisplay:10.37,2013-01-27 16:52:00,
2013-01-27 11:55:00,75.4,59.6,30.32,ENE,61,1.1,1.1,58,0.00,CLR,SCT,0.00,WeatherDisplay:10.37,2013-01-27 16:55:00,
2013-01-27 11:56:00,75.5,59.2,30.32,NNE,16,2.3,2.3,57,0.00,CLR,SCT,0.00,WeatherDisplay:10.37,2013-01-27 16:56:00,
2013-01-27 11:57:00,75.5,59.2,30.32,NNE,27,1.1,0.0,57,0.00,CLR,SCT,0.00,WeatherDisplay:10.37,2013-01-27 16:57:00,
2013-01-27 12:00:00,75.9,59.1,30.31,NNE,18,3.5,3.5,56,0.00,CLR,SCT,0.00,WeatherDisplay:10.37,2013-01-27 17:00:00,
2013-01-27 12:01:00,76.1,59.3,30.31,NE,39,1.0,1.0,56,0.00,CLR,SCT,0.00,WeatherDisplay:10.37,2013-01-27 17:01:00,
2013-01-27 12:02:00,76.1,59.3,30.31,NNE,25,2.3,2.3,56,0.00,CLR,SCT,0.00,WeatherDisplay:10.37,2013-01-27 17:02:00,
2013-01-27 12:05:00,76.3,59.4,30.31,NE,41,2.0,2.0,56,0.00,CLR,SCT,0.00,WeatherDisplay:10.37,2013-01-27 17:05:00,
2013-01-27 12:06:00,76.4,59.0,30.31,NE,53,2.3,2.3,55,0.00,CLR,SCT,0.00,WeatherDisplay:10.37,2013-01-27 17:06:00,
2013-01-27 12:07:00,76.5,59.1,30.31,NE,49,2.3,2.3,55,0.00,CLR,SCT,0.00,WeatherDisplay:10.37,2013-01-27 17:07:00,
2013-01-27 12:10:00,76.5,59.6,30.31,North,5,0.0,0.1,56,0.00,CLR,SCT,0.00,WeatherDisplay:10.37,2013-01-27 17:10:00,
2013-01-27 12:12:00,76.7,59.3,30.31,ENE,61,3.5,3.5,55,0.00,CLR,SCT,0.00,WeatherDisplay:10.37,2013-01-27 17:12:00,
2013-01-27 12:15:00,76.8,58.4,30.31,NNE,30,5.8,5.8,53,0.00,CLR,SCT,0.00,WeatherDisplay:10.37,2013-01-27 17:15:00,
2013-01-27 12:17:00,76.6,58.7,30.31,North,358,1.1,0.0,54,0.00,CLR,SCT,0.00,WeatherDisplay:10.37,2013-01-27 17:17:00,
2013-01-27 12:20:00,76.6,58.7,30.31,NNW,333,2.3,2.3,54,0.00,CLR,SCT,0.00,WeatherDisplay:10.37,2013-01-27 17:20:00,
2013-01-27 12:22:00,76.7,58.8,30.31,NNE,25,2.0,2.0,54,0.00,CLR,SCT,0.00,WeatherDisplay:10.37,2013-01-27 17:22:00,
2013-01-27 12:25:00,77.0,59.1,30.31,NE,53,3.5,3.5,54,0.00,CLR,SCT,0.00,WeatherDisplay:10.37,2013-01-27 17:25:00,
2013-01-27 12:27:00,77.1,58.6,30.30,SSE,160,1.1,1.1,53,0.00,CLR,SCT,0.00,WeatherDisplay:10.37,2013-01-27 17:27:00,
2013-01-27 12:28:00,77.2,58.7,30.30,WNW,288,1.1,1.1,53,0.00,CLR,SCT,0.00,WeatherDisplay:10.37,2013-01-27 17:28:00,
2013-01-27 12:30:00,77.0,58.6,30.30,ENE,64,3.5,3.5,53,0.00,CLR,SCT,0.00,WeatherDisplay:10.37,2013-01-27 17:30:00,
2013-01-27 12:32:00,76.9,59.0,30.30,ENE,64,3.5,3.5,54,0.00,CLR,SCT,0.00,WeatherDisplay:10.37,2013-01-27 17:32:00,
2013-01-27 12:33:00,76.9,59.0,30.30,NNE,18,2.3,2.3,54,0.00,CLR,SCT,0.00,WeatherDisplay:10.37,2013-01-27 17:33:00,
2013-01-27 12:36:00,77.1,58.1,30.30,SE,131,3.5,3.5,52,0.00,CLR,SCT,0.00,WeatherDisplay:10.37,2013-01-27 17:36:00,
2013-01-27 12:37:00,77.2,58.7,30.30,WSW,248,3.5,3.5,53,0.00,CLR,SCT,0.00,WeatherDisplay:10.37,2013-01-27 17:37:00,
2013-01-27 12:38:00,77.2,59.3,30.30,SW,225,2.3,2.3,54,0.00,CLR,SCT,0.00,WeatherDisplay:10.37,2013-01-27 17:38:00,
2013-01-27 12:41:00,77.6,59.1,30.30,East,89,4.0,4.0,53,0.00,CLR,SCT,0.00,WeatherDisplay:10.37,2013-01-27 17:41:00,
2013-01-27 12:42:00,77.5,59.0,30.29,SSW,197,3.5,3.5,53,0.00,CLR,SCT,0.00,WeatherDisplay:10.37,2013-01-27 17:42:00,
2013-01-27 12:43:00,77.5,59.0,30.29,SSE,160,4.6,4.6,53,0.00,CLR,SCT,0.00,WeatherDisplay:10.37,2013-01-27 17:43:00,
2013-01-27 12:44:00,77.5,59.0,30.29,NE,53,4.6,4.6,53,0.00,CLR,SCT,0.00,WeatherDisplay:10.37,2013-01-27 17:44:00,
2013-01-27 12:46:00,77.6,59.1,30.29,NW,308,3.5,3.5,53,0.00,CLR,SCT,0.00,WeatherDisplay:10.37,2013-01-27 17:46:00,
2013-01-27 12:47:00,77.5,59.0,30.29,SE,134,3.5,3.5,53,0.00,CLR,SCT,0.00,WeatherDisplay:10.37,2013-01-27 17:47:00,
2013-01-27 12:48:00,77.5,59.5,30.29,East,98,3.5,3.5,54,0.00,CLR,SCT,0.00,WeatherDisplay:10.37,2013-01-27 17:48:00,
2013-01-27 12:49:00,77.5,59.5,30.29,NE,53,3.5,3.5,54,0.00,CLR,SCT,0.00,WeatherDisplay:10.37,2013-01-27 17:49:00,
2013-01-27 12:51:00,77.6,59.6,30.29,NE,39,2.3,2.3,54,0.00,CLR,SCT,0.00,WeatherDisplay:10.37,2013-01-27 17:51:00,
2013-01-27 12:52:00,77.7,60.2,30.29,North,356,1.1,1.1,55,0.00,CLR,SCT,0.00,WeatherDisplay:10.37,2013-01-27 17:52:00,
2013-01-27 12:53:00,77.8,59.3,30.29,North,6,2.3,2.3,53,0.00,CLR,SCT,0.00,WeatherDisplay:10.37,2013-01-27 17:53:00,
2013-01-27 12:54:00,77.8,59.3,30.29,North,6,2.3,2.3,53,0.00,CLR,SCT,0.00,WeatherDisplay:10.37,2013-01-27 17:54:00,
2013-01-27 12:56:00,77.7,59.2,30.29,NNE,27,3.5,3.5,53,0.00,CLR,SCT,0.00,WeatherDisplay:10.37,2013-01-27 17:56:00,
2013-01-27 12:58:00,77.7,59.7,30.28,NNE,26,1.1,1.1,54,0.00,CLR,SCT,0.00,WeatherDisplay:10.37,2013-01-27 17:58:00,
2013-01-27 12:59:00,77.8,59.8,30.29,NNE,18,0.0,0.0,54,0.00,CLR,SCT,0.00,WeatherDisplay:10.37,2013-01-27 17:59:00,
2013-01-27 13:02:00,78.1,60.1,30.28,SE,128,3.5,3.5,54,0.00,CLR,SCT,0.00,WeatherDisplay:10.37,2013-01-27 18:02:00,
2013-01-27 13:03:00,78.1,60.1,30.28,ENE,58,3.5,3.5,54,0.00,CLR,SCT,0.00,WeatherDisplay:10.37,2013-01-27 18:03:00,
2013-01-27 13:04:00,78.1,59.6,30.28,North,6,3.5,3.5,53,0.00,CLR,SCT,0.00,WeatherDisplay:10.37,2013-01-27 18:04:00,
2013-01-27 13:07:00,78.1,59.6,30.28,WSW,252,6.9,6.9,53,0.00,CLR,SCT,0.00,WeatherDisplay:10.37,2013-01-27 18:07:00,
2013-01-27 13:08:00,78.0,59.5,30.28,East,84,3.5,3.5,53,0.00,CLR,SCT,0.00,WeatherDisplay:10.37,2013-01-27 18:08:00,
2013-01-27 13:09:00,78.0,59.5,30.28,NE,50,4.6,4.6,53,0.00,CLR,SCT,0.00,WeatherDisplay:10.37,2013-01-27 18:09:00,
2013-01-27 13:12:00,77.9,59.4,30.28,ESE,105,4.6,4.6,53,0.00,CLR,SCT,0.00,WeatherDisplay:10.37,2013-01-27 18:12:00,
2013-01-27 13:13:00,77.8,59.3,30.28,North,9,3.5,3.5,53,0.00,CLR,SCT,0.00,WeatherDisplay:10.37,2013-01-27 18:13:00,
2013-01-27 13:14:00,77.8,59.3,30.28,NE,36,3.5,3.5,53,0.00,CLR,SCT,0.00,WeatherDisplay:10.37,2013-01-27 18:14:00,
2013-01-27 13:17:00,78.0,59.5,30.28,ENE,60,3.5,3.5,53,0.00,CLR,SCT,0.00,WeatherDisplay:10.37,2013-01-27 18:17:00,
2013-01-27 13:18:00,78.1,59.6,30.28,NE,41,2.3,2.3,53,0.00,CLR,SCT,0.00,WeatherDisplay:10.37,2013-01-27 18:18:00,
2013-01-27 13:19:00,78.1,59.6,30.28,NNW,339,2.3,2.3,53,0.00,CLR,SCT,0.00,WeatherDisplay:10.37,2013-01-27 18:19:00,
2013-01-27 13:22:00,78.3,59.8,30.27,North,358,2.3,2.3,53,0.00,CLR,SCT,0.00,WeatherDisplay:10.37,2013-01-27 18:22:00,
2013-01-27 13:23:00,78.3,59.2,30.28,North,4,3.5,3.5,52,0.00,CLR,SCT,0.00,WeatherDisplay:10.37,2013-01-27 18:23:00,
2013-01-27 13:24:00,78.3,59.2,30.28,NE,49,2.3,2.3,52,0.00,CLR,SCT,0.00,WeatherDisplay:10.37,2013-01-27 18:24:00,
2013-01-27 13:25:00,78.3,59.2,30.27,NNW,333,2.3,2.3,52,0.00,CLR,SCT,0.00,WeatherDisplay:10.37,2013-01-27 18:25:00,
2013-01-27 13:28:00,78.3,59.2,30.27,WSW,246,1.1,1.1,52,0.00,CLR,SCT,0.00,WeatherDisplay:10.37,2013-01-27 18:28:00,
2013-01-27 13:29:00,78.5,59.4,30.27,SE,142,2.3,2.3,52,0.00,CLR,SCT,0.00,WeatherDisplay:10.37,2013-01-27 18:29:00,
2013-01-27 13:30:00,78.6,59.5,30.27,North,6,2.3,2.3,52,0.00,CLR,SCT,0.00,WeatherDisplay:10.37,2013-01-27 18:30:00,
2013-01-27 13:34:00,79.2,59.5,30.27,SSE,151,1.1,1.1,51,0.00,CLR,SCT,0.00,WeatherDisplay:10.37,2013-01-27 18:34:00,
2013-01-27 13:35:00,79.3,59.6,30.27,ENE,70,3.0,3.0,51,0.00,CLR,SCT,0.00,WeatherDisplay:10.37,2013-01-27 18:35:00,
2013-01-27 13:39:00,78.9,59.2,30.27,NNE,12,1.1,1.1,51,0.00,CLR,SCT,0.00,WeatherDisplay:10.37,2013-01-27 18:39:00,
2013-01-27 13:40:00,78.9,59.2,30.27,South,174,3.5,3.5,51,0.00,CLR,SCT,0.00,WeatherDisplay:10.37,2013-01-27 18:40:00,
2013-01-27 13:44:00,78.9,59.2,30.26,SSW,200,2.3,2.3,51,0.00,CLR,SCT,0.00,WeatherDisplay:10.37,2013-01-27 18:44:00,
2013-01-27 13:45:00,78.9,59.8,30.26,SSW,201,4.0,4.0,52,0.00,CLR,SCT,0.00,WeatherDisplay:10.37,2013-01-27 18:45:00,
2013-01-27 13:49:00,79.4,59.7,30.26,WSW,257,3.5,3.5,51,0.00,CLR,SCT,0.00,WeatherDisplay:10.37,2013-01-27 18:49:00,
2013-01-27 13:50:00,79.4,59.7,30.26,SW,215,3.5,3.5,51,0.00,CLR,SCT,0.00,WeatherDisplay:10.37,2013-01-27 18:50:00,
2013-01-27 13:54:00,79.4,59.7,30.26,South,177,3.5,3.5,51,0.00,CLR,SCT,0.00,WeatherDisplay:10.37,2013-01-27 18:54:00,
2013-01-27 13:55:00,79.4,59.7,30.26,South,176,1.1,1.1,51,0.00,CLR,SCT,0.00,WeatherDisplay:10.37,2013-01-27 18:55:00,
2013-01-27 13:56:00,79.4,59.1,30.26,SSW,210,1.1,0.0,50,0.00,CLR,SCT,0.00,WeatherDisplay:10.37,2013-01-27 18:56:00,
2013-01-27 13:59:00,79.5,58.1,30.26,East,101,2.3,2.3,48,0.00,CLR,SCT,0.00,WeatherDisplay:10.37,2013-01-27 18:59:00,
2013-01-27 14:00:00,79.5,58.7,30.26,WNW,283,1.1,1.1,49,0.00,CLR,SCT,0.00,WeatherDisplay:10.37,2013-01-27 19:00:00,
2013-01-27 14:01:00,79.6,58.8,30.26,South,186,1.1,1.1,49,0.00,CLR,SCT,0.00,WeatherDisplay:10.37,2013-01-27 19:01:00,
2013-01-27 14:04:00,79.6,58.8,30.26,NE,49,5.8,5.8,49,0.00,CLR,SCT,0.00,WeatherDisplay:10.37,2013-01-27 19:04:00,
2013-01-27 14:05:00,79.6,58.8,30.26,NE,39,3.5,3.5,49,0.00,CLR,SCT,0.00,WeatherDisplay:10.37,2013-01-27 19:05:00,
2013-01-27 14:06:00,79.6,58.8,30.26,NNE,26,1.1,1.1,49,0.00,CLR,SCT,0.00,WeatherDisplay:10.37,2013-01-27 19:06:00,
2013-01-27 14:09:00,79.6,58.8,30.26,NE,41,2.3,2.3,49,0.00,CLR,SCT,0.00,WeatherDisplay:10.37,2013-01-27 19:09:00,
2013-01-27 14:10:00,79.7,58.8,30.26,ENE,61,3.5,3.5,49,0.00,CLR,SCT,0.00,WeatherDisplay:10.37,2013-01-27 19:10:00,
2013-01-27 14:11:00,79.7,58.3,30.26,ENE,61,4.6,4.6,48,0.00,CLR,SCT,0.00,WeatherDisplay:10.37,2013-01-27 19:11:00,
2013-01-27 14:14:00,79.9,59.0,30.26,ENE,70,1.1,1.1,49,0.00,CLR,SCT,0.00,WeatherDisplay:10.37,2013-01-27 19:14:00,
2013-01-27 14:15:00,79.9,59.0,30.26,ENE,71,1.1,1.1,49,0.00,CLR,SCT,0.00,WeatherDisplay:10.37,2013-01-27 19:15:00,
2013-01-27 14:16:00,80.1,59.8,30.26,NE,44,1.1,1.1,50,0.00,CLR,SCT,0.00,WeatherDisplay:10.37,2013-01-27 19:16:00,
2013-01-27 14:19:00,80.1,59.2,30.26,East,84,3.5,3.5,49,0.00,CLR,SCT,0.00,WeatherDisplay:10.37,2013-01-27 19:19:00,
2013-01-27 14:20:00,80.0,59.1,30.26,SE,136,2.3,2.3,49,0.00,CLR,SCT,0.00,WeatherDisplay:10.37,2013-01-27 19:20:00,
2013-01-27 14:22:00,80.1,59.2,30.26,East,96,2.3,2.3,49,0.00,CLR,SCT,0.00,WeatherDisplay:10.37,2013-01-27 19:22:00,
2013-01-27 14:25:00,80.1,58.6,30.26,NNW,330,4.0,4.0,48,0.00,CLR,SCT,0.00,WeatherDisplay:10.37,2013-01-27 19:25:00,
2013-01-27 14:28:00,79.8,58.9,30.26,ENE,67,2.3,2.3,49,0.00,CLR,SCT,0.00,WeatherDisplay:10.37,2013-01-27 19:28:00,
2013-01-27 14:30:00,79.7,58.3,30.25,West,269,3.5,3.5,48,0.00,CLR,SCT,0.00,WeatherDisplay:10.37,2013-01-27 19:30:00,
2013-01-27 14:34:00,79.8,58.9,30.25,SSE,163,5.8,5.8,49,0.00,CLR,SCT,0.00,WeatherDisplay:10.37,2013-01-27 19:34:00,
2013-01-27 14:35:00,79.8,58.9,30.25,East,98,1.1,1.6,49,0.00,CLR,SCT,0.00,WeatherDisplay:10.37,2013-01-27 19:35:00,
2013-01-27 14:39:00,80.0,59.1,30.25,North,6,1.1,0.0,49,0.00,CLR,SCT,0.00,WeatherDisplay:10.37,2013-01-27 19:39:00,
2013-01-27 14:40:00,80.1,59.2,30.25,NE,43,1.1,1.1,49,0.00,CLR,SCT,0.00,WeatherDisplay:10.37,2013-01-27 19:40:00,
2013-01-27 14:44:00,79.9,59.0,30.25,NNE,16,3.5,3.5,49,0.00,CLR,SCT,0.00,WeatherDisplay:10.37,2013-01-27 19:44:00,
2013-01-27 14:45:00,79.8,59.5,30.25,NNE,19,2.3,2.3,50,0.00,CLR,SCT,0.00,WeatherDisplay:10.37,2013-01-27 19:45:00,
2013-01-27 14:46:00,79.8,59.5,30.25,ENE,61,2.3,2.3,50,0.00,CLR,SCT,0.00,WeatherDisplay:10.37,2013-01-27 19:46:00,
2013-01-27 14:49:00,79.5,59.2,30.25,ENE,77,3.5,3.5,50,0.00,CLR,SCT,0.00,WeatherDisplay:10.37,2013-01-27 19:49:00,
2013-01-27 14:51:00,79.4,59.1,30.25,ENE,74,4.0,4.0,50,0.00,CLR,SCT,0.00,WeatherDisplay:10.37,2013-01-27 19:51:00,
2013-01-27 14:54:00,79.5,59.2,30.25,East,84,3.5,3.5,50,0.00,CLR,SCT,0.00,WeatherDisplay:10.37,2013-01-27 19:54:00,
2013-01-27 14:56:00,79.7,59.4,30.25,East,88,3.5,3.5,50,0.00,CLR,SCT,0.00,WeatherDisplay:10.37,2013-01-27 19:56:00,
2013-01-27 14:57:00,79.8,59.5,30.25,NE,44,2.3,2.3,50,0.00,CLR,SCT,0.00,WeatherDisplay:10.37,2013-01-27 19:57:00,
2013-01-27 14:59:00,79.9,59.0,30.25,West,278,2.3,2.3,49,0.00,CLR,SCT,0.00,WeatherDisplay:10.37,2013-01-27 19:59:00,
2013-01-27 15:01:00,80.1,59.2,30.25,South,186,1.1,0.0,49,0.00,CLR,SCT,0.00,WeatherDisplay:10.37,2013-01-27 20:01:00,
2013-01-27 15:02:00,80.2,58.1,30.25,SSW,200,3.5,3.5,47,0.00,CLR,SCT,0.00,WeatherDisplay:10.37,2013-01-27 20:02:00,
2013-01-27 15:05:00,80.4,58.9,30.25,East,82,3.5,3.5,48,0.00,CLR,SCT,0.00,WeatherDisplay:10.37,2013-01-27 20:05:00,
2013-01-27 15:06:00,80.5,59.0,30.25,NNW,339,3.5,3.5,48,0.00,CLR,SCT,0.00,WeatherDisplay:10.37,2013-01-27 20:06:00,
2013-01-27 15:07:00,80.3,58.8,30.24,NNE,30,3.5,3.5,48,0.00,CLR,SCT,0.00,WeatherDisplay:10.37,2013-01-27 20:07:00,
2013-01-27 15:10:00,80.3,59.4,30.25,NE,55,0.0,4.0,49,0.00,CLR,SCT,0.00,WeatherDisplay:10.37,2013-01-27 20:10:00,
2013-01-27 15:11:00,80.2,59.3,30.24,NE,51,0.0,0.0,49,0.00,CLR,SCT,0.00,WeatherDisplay:10.37,2013-01-27 20:11:00,
2013-01-27 15:13:00,80.3,59.4,30.24,North,8,3.5,3.5,49,0.00,CLR,SCT,0.00,WeatherDisplay:10.37,2013-01-27 20:13:00,
2013-01-27 15:15:00,80.4,59.4,30.24,NNE,28,1.0,6.0,49,0.00,CLR,SCT,0.00,WeatherDisplay:10.37,2013-01-27 20:15:00,
2013-01-27 15:16:00,80.5,59.0,30.24,South,178,3.5,3.5,48,0.00,CLR,SCT,0.00,WeatherDisplay:10.37,2013-01-27 20:16:00,
2013-01-27 15:18:00,80.5,59.0,30.24,South,179,5.0,5.0,48,0.00,CLR,SCT,0.00,WeatherDisplay:10.37,2013-01-27 20:18:00,
2013-01-27 15:20:00,80.5,59.0,30.24,SE,133,2.0,5.0,48,0.00,CLR,SCT,0.00,WeatherDisplay:10.37,2013-01-27 20:20:00,
2013-01-27 15:21:00,80.3,58.8,30.24,North,8,3.5,3.5,48,0.00,CLR,SCT,0.00,WeatherDisplay:10.37,2013-01-27 20:21:00,
2013-01-27 15:23:00,80.2,59.3,30.24,SSW,193,5.8,5.8,49,0.00,CLR,SCT,0.00,WeatherDisplay:10.37,2013-01-27 20:23:00,
2013-01-27 15:25:00,80.1,59.2,30.24,NNE,33,4.6,4.6,49,0.00,CLR,SCT,0.00,WeatherDisplay:10.37,2013-01-27 20:25:00,
2013-01-27 15:26:00,79.9,59.0,30.24,ESE,115,5.8,5.8,49,0.00,CLR,SCT,0.00,WeatherDisplay:10.37,2013-01-27 20:26:00,
2013-01-27 15:28:00,79.7,58.8,30.24,South,180,5.8,5.8,49,0.00,CLR,SCT,0.00,WeatherDisplay:10.37,2013-01-27 20:28:00,
2013-01-27 15:30:00,79.8,59.5,30.24,SSE,162,3.5,3.5,50,0.00,CLR,SCT,0.00,WeatherDisplay:10.37,2013-01-27 20:30:00,
2013-01-27 15:31:00,79.9,59.0,30.24,NNE,29,2.3,2.3,49,0.00,CLR,SCT,0.00,WeatherDisplay:10.37,2013-01-27 20:31:00,
2013-01-27 15:32:00,79.9,59.0,30.24,NNE,27,3.5,3.5,49,0.00,CLR,SCT,0.00,WeatherDisplay:10.37,2013-01-27 20:32:00,
2013-01-27 15:33:00,79.9,59.6,30.24,NE,34,3.5,3.5,50,0.00,CLR,SCT,0.00,WeatherDisplay:10.37,2013-01-27 20:33:00,
2013-01-27 15:35:00,80.0,59.7,30.24,SE,129,3.5,3.5,50,0.00,CLR,SCT,0.00,WeatherDisplay:10.37,2013-01-27 20:35:00,
2013-01-27 15:36:00,80.0,59.1,30.24,SE,129,1.1,0.0,49,0.00,CLR,SCT,0.00,WeatherDisplay:10.37,2013-01-27 20:36:00,
2013-01-27 15:37:00,80.0,59.1,30.24,East,87,1.1,1.1,49,0.00,CLR,SCT,0.00,WeatherDisplay:10.37,2013-01-27 20:37:00,
2013-01-27 15:38:00,80.0,59.1,30.24,SSE,148,2.3,2.3,49,0.00,CLR,SCT,0.00,WeatherDisplay:10.37,2013-01-27 20:38:00,
2013-01-27 15:40:00,80.0,59.1,30.24,SSW,210,2.3,2.3,49,0.00,CLR,SCT,0.00,WeatherDisplay:10.37,2013-01-27 20:40:00,
2013-01-27 15:42:00,80.0,59.7,30.24,NNE,19,2.3,2.3,50,0.00,CLR,SCT,0.00,WeatherDisplay:10.37,2013-01-27 20:42:00,
2013-01-27 15:43:00,80.0,59.7,30.24,ESE,105,1.1,0.0,50,0.00,CLR,SCT,0.00,WeatherDisplay:10.37,2013-01-27 20:43:00,
2013-01-27 15:46:00,80.1,59.2,30.24,SSW,196,3.5,3.5,49,0.00,CLR,SCT,0.00,WeatherDisplay:10.37,2013-01-27 20:46:00,
2013-01-27 15:47:00,80.0,59.1,30.24,WSW,240,3.5,3.5,49,0.00,CLR,SCT,0.00,WeatherDisplay:10.37,2013-01-27 20:47:00,
2013-01-27 15:48:00,80.0,59.1,30.24,NE,36,5.0,5.0,49,0.00,CLR,SCT,0.00,WeatherDisplay:10.37,2013-01-27 20:48:00,
2013-01-27 15:51:00,79.8,59.5,30.24,East,90,3.5,3.5,50,0.00,CLR,SCT,0.00,WeatherDisplay:10.37,2013-01-27 20:51:00,
2013-01-27 15:52:00,79.9,59.6,30.24,NNE,33,3.5,3.5,50,0.00,CLR,SCT,0.00,WeatherDisplay:10.37,2013-01-27 20:52:00,
2013-01-27 15:53:00,79.8,59.5,30.24,NE,36,1.1,1.1,50,0.00,CLR,SCT,0.00,WeatherDisplay:10.37,2013-01-27 20:53:00,
2013-01-27 15:56:00,79.7,58.8,30.24,NNE,18,1.1,1.1,49,0.00,CLR,SCT,0.00,WeatherDisplay:10.37,2013-01-27 20:56:00,
2013-01-27 15:57:00,79.6,58.8,30.24,NE,37,1.1,2.0,49,0.00,CLR,SCT,0.00,WeatherDisplay:10.37,2013-01-27 20:57:00,
2013-01-27 15:58:00,79.6,58.8,30.24,SW,226,3.5,3.5,49,0.00,CLR,SCT,0.00,WeatherDisplay:10.37,2013-01-27 20:58:00,
2013-01-27 16:01:00,79.6,59.3,30.24,North,355,1.1,1.1,50,0.00,CLR,SCT,0.00,WeatherDisplay:10.37,2013-01-27 21:01:00,
2013-01-27 16:03:00,79.6,59.3,30.24,East,91,1.1,1.1,50,0.00,CLR,SCT,0.00,WeatherDisplay:10.37,2013-01-27 21:03:00,
2013-01-27 16:04:00,79.6,59.9,30.24,SSW,207,2.3,2.3,51,0.00,CLR,SCT,0.00,WeatherDisplay:10.37,2013-01-27 21:04:00,
2013-01-27 16:06:00,79.6,59.3,30.24,NNE,30,3.5,3.5,50,0.00,CLR,SCT,0.00,WeatherDisplay:10.37,2013-01-27 21:06:00,
2013-01-27 16:08:00,79.4,59.7,30.24,ENE,77,2.0,2.0,51,0.00,CLR,SCT,0.00,WeatherDisplay:10.37,2013-01-27 21:08:00,
2013-01-27 16:09:00,79.3,59.6,30.25,ENE,61,2.3,2.3,51,0.00,CLR,SCT,0.00,WeatherDisplay:10.37,2013-01-27 21:09:00,
2013-01-27 16:11:00,78.9,59.8,30.24,North,4,4.6,4.6,52,0.00,CLR,SCT,0.00,WeatherDisplay:10.37,2013-01-27 21:11:00,
2013-01-27 16:13:00,78.6,59.5,30.25,SSE,150,2.3,2.3,52,0.00,CLR,SCT,0.00,WeatherDisplay:10.37,2013-01-27 21:13:00,
2013-01-27 16:14:00,78.5,59.4,30.24,South,172,3.5,0.0,52,0.00,CLR,SCT,0.00,WeatherDisplay:10.37,2013-01-27 21:14:00,
2013-01-27 16:17:00,78.4,59.9,30.25,NE,43,2.3,2.3,53,0.00,CLR,SCT,0.00,WeatherDisplay:10.37,2013-01-27 21:17:00,
2013-01-27 16:18:00,78.3,59.8,30.25,West,266,1.1,1.1,53,0.00,CLR,SCT,0.00,WeatherDisplay:10.37,2013-01-27 21:18:00,
2013-01-27 16:19:00,78.2,59.7,30.25,WNW,291,1.1,0.0,53,0.00,CLR,SCT,0.00,WeatherDisplay:10.37,2013-01-27 21:19:00,
2013-01-27 16:22:00,77.9,59.4,30.24,NE,40,3.5,3.5,53,0.00,CLR,SCT,0.00,WeatherDisplay:10.37,2013-01-27 21:22:00,
2013-01-27 16:23:00,77.8,59.8,30.24,SSW,211,3.5,3.5,54,0.00,CLR,SCT,0.00,WeatherDisplay:10.37,2013-01-27 21:23:00,
2013-01-27 16:24:00,77.8,59.8,30.25,NNE,30,2.3,2.3,54,0.00,CLR,SCT,0.00,WeatherDisplay:10.37,2013-01-27 21:24:00,
2013-01-27 16:27:00,77.6,59.6,30.25,NW,325,1.1,1.1,54,0.00,CLR,SCT,0.00,WeatherDisplay:10.37,2013-01-27 21:27:00,
2013-01-27 16:29:00,77.5,59.5,30.25,South,190,1.1,1.1,54,0.00,CLR,SCT,0.00,WeatherDisplay:10.37,2013-01-27 21:29:00,
2013-01-27 16:32:00,77.3,59.9,30.25,SE,125,3.5,3.5,55,0.00,CLR,SCT,0.00,WeatherDisplay:10.37,2013-01-27 21:32:00,
2013-01-27 16:34:00,77.2,59.8,30.25,NW,325,1.1,1.1,55,0.00,CLR,SCT,0.00,WeatherDisplay:10.37,2013-01-27 21:34:00,
2013-01-27 16:37:00,77.0,60.1,30.25,North,9,2.3,2.3,56,0.00,CLR,SCT,0.00,WeatherDisplay:10.37,2013-01-27 21:37:00,
2013-01-27 16:39:00,76.8,59.9,30.25,NNW,339,1.1,1.1,56,0.00,CLR,SCT,0.00,WeatherDisplay:10.37,2013-01-27 21:39:00,
2013-01-27 16:43:00,76.6,59.7,30.25,SSE,155,3.5,3.5,56,0.00,CLR,SCT,0.00,WeatherDisplay:10.37,2013-01-27 21:43:00,
2013-01-27 16:44:00,76.4,59.5,30.25,East,96,1.1,1.1,56,0.00,CLR,SCT,0.00,WeatherDisplay:10.37,2013-01-27 21:44:00,
2013-01-27 16:45:00,76.4,59.5,30.25,East,96,1.1,1.1,56,0.00,CLR,SCT,0.00,WeatherDisplay:10.37,2013-01-27 21:45:00,
2013-01-27 16:48:00,76.3,59.9,30.25,NNE,18,0.0,0.0,57,0.00,CLR,SCT,0.00,WeatherDisplay:10.37,2013-01-27 21:48:00,
2013-01-27 16:49:00,76.2,59.9,30.25,NNE,18,1.1,0.0,57,0.00,CLR,SCT,0.00,WeatherDisplay:10.37,2013-01-27 21:49:00,
2013-01-27 16:50:00,76.2,59.4,30.25,ENE,65,0.0,1.0,56,0.00,CLR,SCT,0.00,WeatherDisplay:10.37,2013-01-27 21:50:00,
2013-01-27 16:53:00,76.0,59.7,30.25,North,9,1.1,1.1,57,0.00,CLR,SCT,0.00,WeatherDisplay:10.37,2013-01-27 21:53:00,
2013-01-27 16:55:00,76.0,59.7,30.25,NE,43,2.0,2.0,57,0.00,CLR,SCT,0.00,WeatherDisplay:10.37,2013-01-27 21:55:00,
2013-01-27 16:58:00,75.9,60.1,30.25,East,101,3.5,3.5,58,0.00,CLR,SCT,0.00,WeatherDisplay:10.37,2013-01-27 21:58:00,
2013-01-27 17:00:00,75.8,60.0,30.25,SE,142,2.3,2.3,58,0.00,CLR,SCT,0.00,WeatherDisplay:10.37,2013-01-27 22:00:00,
2013-01-27 17:03:00,75.7,59.9,30.25,ENE,78,3.5,3.5,58,0.00,CLR,SCT,0.00,WeatherDisplay:10.37,2013-01-27 22:03:00,
2013-01-27 17:05:00,75.7,59.9,30.25,East,101,2.3,2.3,58,0.00,CLR,SCT,0.00,WeatherDisplay:10.37,2013-01-27 22:05:00,
2013-01-27 17:08:00,75.6,60.3,30.26,NNW,348,3.5,3.5,59,0.00,CLR,SCT,0.00,WeatherDisplay:10.37,2013-01-27 22:08:00,
2013-01-27 17:10:00,75.5,60.6,30.26,ESE,102,3.5,3.5,60,0.00,CLR,SCT,0.00,WeatherDisplay:10.37,2013-01-27 22:10:00,
2013-01-27 17:13:00,75.3,60.9,30.26,SW,226,3.5,3.5,61,0.00,CLR,SCT,0.00,WeatherDisplay:10.37,2013-01-27 22:13:00,
2013-01-27 17:15:00,75.2,61.3,30.26,SSW,210,3.5,0.0,62,0.00,CLR,SCT,0.00,WeatherDisplay:10.37,2013-01-27 22:15:00,
2013-01-27 17:18:00,75.0,61.1,30.26,SSW,204,2.3,2.3,62,0.00,CLR,SCT,0.00,WeatherDisplay:10.37,2013-01-27 22:18:00,
2013-01-27 17:20:00,74.9,61.5,30.26,NNW,346,3.5,3.5,63,0.00,CLR,SCT,0.00,WeatherDisplay:10.37,2013-01-27 22:20:00,
2013-01-27 17:23:00,74.7,61.3,30.26,North,352,1.1,1.1,63,0.00,CLR,SCT,0.00,WeatherDisplay:10.37,2013-01-27 22:23:00,
2013-01-27 17:25:00,74.6,61.2,30.26,ENE,58,3.5,3.5,63,0.00,CLR,SCT,0.00,WeatherDisplay:10.37,2013-01-27 22:25:00,
2013-01-27 17:26:00,74.6,61.2,30.26,ENE,58,2.3,2.3,63,0.00,CLR,SCT,0.00,WeatherDisplay:10.37,2013-01-27 22:26:00,
2013-01-27 17:28:00,74.5,61.5,30.26,NNE,25,3.5,3.5,64,0.00,CLR,SCT,0.00,WeatherDisplay:10.37,2013-01-27 22:28:00,
2013-01-27 17:30:00,74.4,61.4,30.26,NE,43,1.1,1.1,64,0.00,CLR,SCT,0.00,WeatherDisplay:10.37,2013-01-27 22:30:00,
2013-01-27 17:31:00,74.4,61.4,30.26,NE,42,1.1,1.1,64,0.00,CLR,SCT,0.00,WeatherDisplay:10.37,2013-01-27 22:31:00,
2013-01-27 17:34:00,74.2,61.7,30.27,SE,134,3.5,3.5,65,0.00,CLR,SCT,0.00,WeatherDisplay:10.37,2013-01-27 22:34:00,
2013-01-27 17:36:00,74.0,61.5,30.27,NNE,30,1.1,1.1,65,0.00,CLR,SCT,0.00,WeatherDisplay:10.37,2013-01-27 22:36:00,
2013-01-27 17:39:00,73.8,61.3,30.27,North,352,0.0,0.0,65,0.00,CLR,SCT,0.00,WeatherDisplay:10.37,2013-01-27 22:39:00,
2013-01-27 17:41:00,73.7,61.2,30.27,SSE,155,0.0,0.0,65,0.00,CLR,SCT,0.00,WeatherDisplay:10.37,2013-01-27 22:41:00,
2013-01-27 17:44:00,73.4,60.9,30.27,SW,224,2.3,2.3,65,0.00,CLR,SCT,0.00,WeatherDisplay:10.37,2013-01-27 22:44:00,
2013-01-27 17:46:00,73.2,60.7,30.27,NNE,30,1.1,1.1,65,0.00,CLR,SCT,0.00,WeatherDisplay:10.37,2013-01-27 22:46:00,
2013-01-27 17:49:00,72.9,60.9,30.27,South,172,3.5,3.5,66,0.00,CLR,SCT,0.00,WeatherDisplay:10.37,2013-01-27 22:49:00,
2013-01-27 17:51:00,72.8,60.8,30.27,SW,235,3.5,3.5,66,0.00,CLR,SCT,0.00,WeatherDisplay:10.37,2013-01-27 22:51:00,
2013-01-27 17:54:00,72.6,60.6,30.27,SE,141,3.5,3.5,66,0.00,CLR,SCT,0.00,WeatherDisplay:10.37,2013-01-27 22:54:00,
2013-01-27 17:56:00,72.6,61.0,30.27,NNW,333,3.5,3.5,67,0.00,CLR,SCT,0.00,WeatherDisplay:10.37,2013-01-27 22:56:00,
2013-01-27 17:57:00,72.5,60.9,30.27,SSW,201,1.1,1.1,67,0.00,CLR,SCT,0.00,WeatherDisplay:10.37,2013-01-27 22:57:00,
2013-01-27 17:59:00,72.3,60.7,30.27,ESE,123,4.6,4.6,67,0.00,CLR,SCT,0.00,WeatherDisplay:10.37,2013-01-27 22:59:00,
2013-01-27 18:01:00,72.2,61.0,30.28,ESE,117,2.3,2.3,68,0.00,CLR,SCT,0.00,WeatherDisplay:10.37,2013-01-27 23:01:00,
2013-01-27 18:02:00,72.2,61.0,30.28,NE,49,2.0,2.0,68,0.00,CLR,SCT,0.00,WeatherDisplay:10.37,2013-01-27 23:02:00,
2013-01-27 18:05:00,72.0,60.9,30.28,East,98,3.5,3.5,68,0.00,CLR,SCT,0.00,WeatherDisplay:10.37,2013-01-27 23:05:00,
2013-01-27 18:06:00,72.0,60.9,30.28,NE,49,3.5,3.5,68,0.00,CLR,SCT,0.00,WeatherDisplay:10.37,2013-01-27 23:06:00,
2013-01-27 18:07:00,72.0,60.9,30.28,ENE,72,3.5,3.5,68,0.00,CLR,SCT,0.00,WeatherDisplay:10.37,2013-01-27 23:07:00,
2013-01-27 18:10:00,71.8,61.1,30.28,NE,40,3.5,3.5,69,0.00,CLR,SCT,0.00,WeatherDisplay:10.37,2013-01-27 23:10:00,
2013-01-27 18:11:00,71.7,61.0,30.28,NE,53,3.5,3.5,69,0.00,CLR,SCT,0.00,WeatherDisplay:10.37,2013-01-27 23:11:00,
2013-01-27 18:12:00,71.7,61.0,30.28,North,349,6.9,6.9,69,0.00,CLR,SCT,0.00,WeatherDisplay:10.37,2013-01-27 23:12:00,
2013-01-27 18:15:00,71.6,60.9,30.28,ESE,116,4.0,4.0,69,0.00,CLR,SCT,0.00,WeatherDisplay:10.37,2013-01-27 23:15:00,
2013-01-27 18:16:00,71.4,61.1,30.28,ENE,58,3.5,3.5,70,0.00,CLR,SCT,0.00,WeatherDisplay:10.37,2013-01-27 23:16:00,
2013-01-27 18:17:00,71.4,61.1,30.28,ENE,63,3.5,3.5,70,0.00,CLR,SCT,0.00,WeatherDisplay:10.37,2013-01-27 23:17:00,
2013-01-27 18:20:00,71.2,60.9,30.28,East,92,3.5,3.5,70,0.00,CLR,SCT,0.00,WeatherDisplay:10.37,2013-01-27 23:20:00,
2013-01-27 18:21:00,71.2,60.9,30.28,SSW,212,1.1,1.1,70,0.00,CLR,SCT,0.00,WeatherDisplay:10.37,2013-01-27 23:21:00,
2013-01-27 18:22:00,71.1,60.8,30.28,SW,215,1.1,1.1,70,0.00,CLR,SCT,0.00,WeatherDisplay:10.37,2013-01-27 23:22:00,
2013-01-27 18:23:00,71.1,60.8,30.28,SSW,204,3.0,3.0,70,0.00,CLR,SCT,0.00,WeatherDisplay:10.37,2013-01-27 23:23:00,
2013-01-27 18:25:00,70.9,61.0,30.28,SSW,194,3.5,0.0,71,0.00,CLR,SCT,0.00,WeatherDisplay:10.37,2013-01-27 23:25:00,
2013-01-27 18:27:00,70.8,60.9,30.28,SE,138,1.1,1.1,71,0.00,CLR,SCT,0.00,WeatherDisplay:10.37,2013-01-27 23:27:00,
2013-01-27 18:28:00,70.7,60.8,30.28,SE,137,1.1,1.1,71,0.00,CLR,SCT,0.00,WeatherDisplay:10.37,2013-01-27 23:28:00,
2013-01-27 18:31:00,70.5,61.0,30.28,East,100,3.0,3.0,72,0.00,CLR,SCT,0.00,WeatherDisplay:10.37,2013-01-27 23:31:00,
2013-01-27 18:32:00,70.5,61.0,30.28,East,89,3.5,3.5,72,0.00,CLR,SCT,0.00,WeatherDisplay:10.37,2013-01-27 23:32:00,
2013-01-27 18:33:00,70.4,60.9,30.28,East,89,2.3,2.3,72,0.00,CLR,SCT,0.00,WeatherDisplay:10.37,2013-01-27 23:33:00,
2013-01-27 18:36:00,70.3,61.2,30.28,SSE,156,2.3,2.3,73,0.00,CLR,SCT,0.00,WeatherDisplay:10.37,2013-01-27 23:36:00,
2013-01-27 18:37:00,70.2,61.1,30.28,NE,36,3.5,3.5,73,0.00,CLR,SCT,0.00,WeatherDisplay:10.37,2013-01-27 23:37:00,
2013-01-27 18:38:00,70.2,61.1,30.28,NE,39,3.5,3.5,73,0.00,CLR,SCT,0.00,WeatherDisplay:10.37,2013-01-27 23:38:00,
2013-01-27 18:41:00,70.0,60.9,30.29,East,92,3.5,0.0,73,0.00,CLR,SCT,0.00,WeatherDisplay:10.37,2013-01-27 23:41:00,
2013-01-27 18:42:00,70.0,60.9,30.29,East,92,0.0,0.0,73,0.00,CLR,SCT,0.00,WeatherDisplay:10.37,2013-01-27 23:42:00,
2013-01-27 18:43:00,69.9,60.8,30.29,East,91,0.0,0.0,73,0.00,CLR,SCT,0.00,WeatherDisplay:10.37,2013-01-27 23:43:00,
2013-01-27 18:47:00,69.7,61.0,30.29,SW,221,2.3,2.3,74,0.00,CLR,SCT,0.00,WeatherDisplay:10.37,2013-01-27 23:47:00,
2013-01-27 18:48:00,69.6,61.3,30.29,NNE,25,2.3,2.3,75,0.00,CLR,SCT,0.00,WeatherDisplay:10.37,2013-01-27 23:48:00,
2013-01-27 18:52:00,69.4,61.5,30.29,West,269,3.5,3.5,76,0.00,CLR,SCT,0.00,WeatherDisplay:10.37,2013-01-27 23:52:00,
2013-01-27 18:53:00,69.4,61.9,30.29,NE,44,3.0,3.0,77,0.00,CLR,SCT,0.00,WeatherDisplay:10.37,2013-01-27 23:53:00,
2013-01-27 18:57:00,69.3,61.8,30.29,SE,142,6.9,6.9,77,0.00,CLR,SCT,0.00,WeatherDisplay:10.37,2013-01-27 23:57:00,
2013-01-27 18:58:00,69.3,61.8,30.29,ESE,111,5.8,5.8,77,0.00,CLR,SCT,0.00,WeatherDisplay:10.37,2013-01-27 23:58:00,
2013-01-27 19:03:00,69.2,62.0,30.29,SE,131,1.1,1.1,78,0.00,CLR,SCT,0.00,WeatherDisplay:10.37,2013-01-28 00:03:00,
2013-01-27 19:08:00,69.0,61.9,30.30,SSW,210,0.0,0.0,78,0.00,CLR,SCT,0.00,WeatherDisplay:10.37,2013-01-28 00:08:00,
2013-01-27 19:13:00,68.7,61.9,30.30,East,91,2.3,2.3,79,0.00,CLR,SCT,0.00,WeatherDisplay:10.37,2013-01-28 00:13:00,
2013-01-27 19:18:00,68.4,62.0,30.30,SE,125,0.0,0.0,80,0.00,CLR,SCT,0.00,WeatherDisplay:10.37,2013-01-28 00:18:00,
2013-01-27 19:19:00,68.4,62.0,30.30,SE,125,1.0,0.0,80,0.00,CLR,SCT,0.00,WeatherDisplay:10.37,2013-01-28 00:19:00,
2013-01-27 19:23:00,68.1,62.0,30.30,SE,125,0.0,0.0,81,0.00,CLR,SCT,0.00,WeatherDisplay:10.37,2013-01-28 00:23:00,
2013-01-27 19:24:00,68.0,61.9,30.30,SE,125,0.0,0.0,81,0.00,CLR,SCT,0.00,WeatherDisplay:10.37,2013-01-28 00:24:00,
2013-01-27 19:29:00,67.8,62.1,30.30,ESE,118,2.3,2.3,82,0.00,CLR,SCT,0.00,WeatherDisplay:10.37,2013-01-28 00:29:00,
2013-01-27 19:34:00,67.7,62.3,30.30,ENE,61,1.1,0.0,83,0.00,CLR,SCT,0.00,WeatherDisplay:10.37,2013-01-28 00:34:00,
2013-01-27 19:39:00,67.5,62.2,30.30,ENE,72,2.3,2.3,83,0.00,CLR,SCT,0.00,WeatherDisplay:10.37,2013-01-28 00:39:00,
2013-01-27 19:44:00,67.3,62.3,30.30,East,87,1.1,1.1,84,0.00,CLR,SCT,0.00,WeatherDisplay:10.37,2013-01-28 00:44:00,
2013-01-27 19:49:00,67.1,62.1,30.30,East,88,2.3,2.3,84,0.00,CLR,SCT,0.00,WeatherDisplay:10.37,2013-01-28 00:49:00,
2013-01-27 19:50:00,67.1,62.1,30.30,SE,125,2.3,2.3,84,0.00,CLR,SCT,0.00,WeatherDisplay:10.37,2013-01-28 00:50:00,
2013-01-27 19:54:00,66.9,61.9,30.30,East,86,1.0,1.0,84,0.00,CLR,SCT,0.00,WeatherDisplay:10.37,2013-01-28 00:54:00,
2013-01-27 19:55:00,66.9,62.2,30.30,East,96,2.3,2.3,85,0.00,CLR,SCT,0.00,WeatherDisplay:10.37,2013-01-28 00:55:00,
2013-01-27 19:59:00,66.9,62.2,30.30,SW,218,1.1,1.1,85,0.00,CLR,SCT,0.00,WeatherDisplay:10.37,2013-01-28 00:59:00,
2013-01-27 20:00:00,66.9,62.2,30.31,SW,218,1.1,1.1,85,0.00,CLR,SCT,0.00,WeatherDisplay:10.37,2013-01-28 01:00:00,
2013-01-27 20:04:00,66.8,62.1,30.31,NE,37,2.0,0.0,85,0.00,CLR,SCT,0.00,WeatherDisplay:10.37,2013-01-28 01:04:00,
2013-01-27 20:05:00,66.8,62.1,30.31,North,3,2.3,2.3,85,0.00,CLR,SCT,0.00,WeatherDisplay:10.37,2013-01-28 01:05:00,
2013-01-27 20:09:00,66.8,62.1,30.31,ENE,71,2.3,2.3,85,0.00,CLR,SCT,0.00,WeatherDisplay:10.37,2013-01-28 01:09:00,
2013-01-27 20:10:00,66.9,62.2,30.31,ENE,70,2.3,2.3,85,0.00,CLR,SCT,0.00,WeatherDisplay:10.37,2013-01-28 01:10:00,
2013-01-27 20:14:00,66.8,62.5,30.31,South,169,1.1,1.1,86,0.00,CLR,SCT,0.00,WeatherDisplay:10.37,2013-01-28 01:14:00,
2013-01-27 20:15:00,66.8,62.5,30.31,South,169,2.3,2.3,86,0.00,CLR,SCT,0.00,WeatherDisplay:10.37,2013-01-28 01:15:00,
2013-01-27 20:20:00,66.7,62.0,30.31,ESE,117,1.1,1.1,85,0.00,CLR,SCT,0.00,WeatherDisplay:10.37,2013-01-28 01:20:00,
2013-01-27 20:25:00,66.6,62.3,30.31,SE,124,0.0,0.0,86,0.00,CLR,SCT,0.00,WeatherDisplay:10.37,2013-01-28 01:25:00,
2013-01-27 20:30:00,66.4,62.1,30.31,ENE,72,1.0,0.0,86,0.00,CLR,SCT,0.00,WeatherDisplay:10.37,2013-01-28 01:30:00,
2013-01-27 20:31:00,66.3,62.0,30.31,ENE,77,2.3,2.3,86,0.00,CLR,SCT,0.00,WeatherDisplay:10.37,2013-01-28 01:31:00,
2013-01-27 20:35:00,66.3,62.0,30.31,East,88,0.0,0.0,86,0.00,CLR,SCT,0.00,WeatherDisplay:10.37,2013-01-28 01:35:00,
2013-01-27 20:36:00,66.3,62.3,30.31,East,90,1.1,1.1,87,0.00,CLR,SCT,0.00,WeatherDisplay:10.37,2013-01-28 01:36:00,
2013-01-27 20:40:00,66.2,61.9,30.32,East,91,0.0,0.0,86,0.00,CLR,SCT,0.00,WeatherDisplay:10.37,2013-01-28 01:40:00,
2013-01-27 20:41:00,66.1,61.8,30.32,East,90,0.0,0.0,86,0.00,CLR,SCT,0.00,WeatherDisplay:10.37,2013-01-28 01:41:00,
2013-01-27 20:45:00,66.0,62.0,30.32,East,85,1.1,1.1,87,0.00,CLR,SCT,0.00,WeatherDisplay:10.37,2013-01-28 01:45:00,
2013-01-27 20:46:00,66.0,62.0,30.32,East,84,0.0,0.0,87,0.00,CLR,SCT,0.00,WeatherDisplay:10.37,2013-01-28 01:46:00,
2013-01-27 20:47:00,66.0,62.0,30.32,East,85,0.0,0.0,87,0.00,CLR,SCT,0.00,WeatherDisplay:10.37,2013-01-28 01:47:00,
2013-01-27 20:50:00,66.0,62.0,30.32,ENE,68,1.1,1.1,87,0.00,CLR,SCT,0.00,WeatherDisplay:10.37,2013-01-28 01:50:00,
2013-01-27 20:51:00,66.0,62.0,30.32,ENE,68,0.0,0.0,87,0.00,CLR,SCT,0.00,WeatherDisplay:10.37,2013-01-28 01:51:00,
2013-01-27 20:52:00,66.0,62.0,30.32,ENE,68,0.0,0.0,87,0.00,CLR,SCT,0.00,WeatherDisplay:10.37,2013-01-28 01:52:00,
2013-01-27 20:55:00,65.9,61.9,30.32,ENE,71,0.0,0.0,87,0.00,CLR,SCT,0.00,WeatherDisplay:10.37,2013-01-28 01:55:00,
2013-01-27 20:56:00,65.9,61.9,30.32,ENE,71,0.0,0.0,87,0.00,CLR,SCT,0.00,WeatherDisplay:10.37,2013-01-28 01:56:00,
2013-01-27 20:57:00,65.9,61.9,30.32,ENE,70,0.0,0.0,87,0.00,CLR,SCT,0.00,WeatherDisplay:10.37,2013-01-28 01:57:00,
2013-01-27 21:01:00,65.9,62.2,30.32,NE,53,1.1,0.0,88,0.00,CLR,SCT,0.00,WeatherDisplay:10.37,2013-01-28 02:01:00,
2013-01-27 21:02:00,65.9,62.2,30.32,NE,53,0.0,0.0,88,0.00,CLR,SCT,0.00,WeatherDisplay:10.37,2013-01-28 02:02:00,
2013-01-27 21:06:00,66.0,62.3,30.32,NE,53,1.1,0.0,88,0.00,CLR,SCT,0.00,WeatherDisplay:10.37,2013-01-28 02:06:00,
2013-01-27 21:07:00,66.0,62.3,30.32,NE,53,1.1,1.1,88,0.00,CLR,SCT,0.00,WeatherDisplay:10.37,2013-01-28 02:07:00,
2013-01-27 21:11:00,66.0,62.3,30.32,NE,51,0.0,0.0,88,0.00,CLR,SCT,0.00,WeatherDisplay:10.37,2013-01-28 02:11:00,
2013-01-27 21:12:00,66.0,62.3,30.32,NE,51,0.0,0.0,88,0.00,CLR,SCT,0.00,WeatherDisplay:10.37,2013-01-28 02:12:00,
2013-01-27 21:16:00,66.1,62.4,30.33,ENE,68,1.1,1.1,88,0.00,CLR,SCT,0.00,WeatherDisplay:10.37,2013-01-28 02:16:00,
2013-01-27 21:17:00,66.1,62.4,30.33,ENE,68,1.1,1.1,88,0.00,CLR,SCT,0.00,WeatherDisplay:10.37,2013-01-28 02:17:00,
2013-01-27 21:18:00,66.1,62.4,30.33,ENE,67,1.1,1.1,88,0.00,CLR,SCT,0.00,WeatherDisplay:10.37,2013-01-28 02:18:00,
2013-01-27 21:21:00,66.2,62.5,30.33,NE,56,0.0,0.0,88,0.00,CLR,SCT,0.00,WeatherDisplay:10.37,2013-01-28 02:21:00,
2013-01-27 21:22:00,66.2,62.5,30.33,NE,56,0.0,0.0,88,0.00,CLR,SCT,0.00,WeatherDisplay:10.37,2013-01-28 02:22:00,
2013-01-27 21:23:00,66.2,62.5,30.33,NE,55,0.0,0.0,88,0.00,CLR,SCT,0.00,WeatherDisplay:10.37,2013-01-28 02:23:00,
2013-01-27 21:26:00,66.2,62.5,30.33,NE,53,0.0,0.0,88,0.00,CLR,SCT,0.00,WeatherDisplay:10.37,2013-01-28 02:26:00,
2013-01-27 21:27:00,66.2,62.5,30.33,NE,49,1.1,1.1,88,0.00,CLR,SCT,0.00,WeatherDisplay:10.37,2013-01-28 02:27:00,
2013-01-27 21:28:00,66.2,62.5,30.33,NE,49,1.1,1.1,88,0.00,CLR,SCT,0.00,WeatherDisplay:10.37,2013-01-28 02:28:00,
2013-01-27 21:31:00,66.2,62.5,30.33,SSE,148,0.0,0.0,88,0.00,CLR,SCT,0.00,WeatherDisplay:10.37,2013-01-28 02:31:00,
2013-01-27 21:33:00,66.2,62.5,30.33,ENE,67,0.0,0.0,88,0.00,CLR,SCT,0.00,WeatherDisplay:10.37,2013-01-28 02:33:00,
2013-01-27 21:36:00,66.2,62.5,30.33,ENE,63,0.0,0.0,88,0.00,CLR,SCT,0.00,WeatherDisplay:10.37,2013-01-28 02:36:00,
2013-01-27 21:38:00,66.2,62.5,30.32,NE,56,1.1,1.1,88,0.00,CLR,SCT,0.00,WeatherDisplay:10.37,2013-01-28 02:38:00,
2013-01-27 21:41:00,66.1,62.4,30.33,ENE,63,1.1,1.1,88,0.00,CLR,SCT,0.00,WeatherDisplay:10.37,2013-01-28 02:41:00,
2013-01-27 21:43:00,66.0,62.7,30.33,NE,53,1.1,1.1,89,0.00,CLR,SCT,0.00,WeatherDisplay:10.37,2013-01-28 02:43:00,
2013-01-27 21:47:00,65.8,62.5,30.32,NE,40,1.1,1.1,89,0.00,CLR,SCT,0.00,WeatherDisplay:10.37,2013-01-28 02:47:00,
2013-01-27 21:48:00,65.8,62.5,30.32,NE,41,1.1,1.1,89,0.00,CLR,SCT,0.00,WeatherDisplay:10.37,2013-01-28 02:48:00,
2013-01-27 21:52:00,65.6,62.6,30.32,NE,41,2.3,2.3,90,0.00,CLR,SCT,0.00,WeatherDisplay:10.37,2013-01-28 02:52:00,
2013-01-27 21:53:00,65.6,62.6,30.32,NE,50,2.3,2.3,90,0.00,CLR,SCT,0.00,WeatherDisplay:10.37,2013-01-28 02:53:00,
2013-01-27 21:54:00,65.6,62.6,30.32,NE,49,1.1,0.0,90,0.00,CLR,SCT,0.00,WeatherDisplay:10.37,2013-01-28 02:54:00,
2013-01-27 21:57:00,65.5,62.5,30.32,NE,44,2.3,2.3,90,0.00,CLR,SCT,0.00,WeatherDisplay:10.37,2013-01-28 02:57:00,
2013-01-27 21:58:00,65.4,62.4,30.32,NNE,32,2.3,2.3,90,0.00,CLR,SCT,0.00,WeatherDisplay:10.37,2013-01-28 02:58:00,
2013-01-27 21:59:00,65.4,62.4,30.32,NE,55,1.1,1.1,90,0.00,CLR,SCT,0.00,WeatherDisplay:10.37,2013-01-28 02:59:00,
2013-01-27 22:02:00,65.2,62.2,30.33,NE,55,1.1,0.0,90,0.00,CLR,SCT,0.00,WeatherDisplay:10.37,2013-01-28 03:02:00,
2013-01-27 22:03:00,65.2,62.2,30.33,NE,56,0.0,0.0,90,0.00,CLR,SCT,0.00,WeatherDisplay:10.37,2013-01-28 03:03:00,
2013-01-27 22:04:00,65.2,62.5,30.33,NE,56,0.0,0.0,91,0.00,CLR,SCT,0.00,WeatherDisplay:10.37,2013-01-28 03:04:00,
2013-01-27 22:07:00,65.0,62.3,30.33,NE,55,0.0,0.0,91,0.00,CLR,SCT,0.00,WeatherDisplay:10.37,2013-01-28 03:07:00,
2013-01-27 22:08:00,65.0,62.3,30.33,NE,56,1.1,0.0,91,0.00,CLR,SCT,0.00,WeatherDisplay:10.37,2013-01-28 03:08:00,
2013-01-27 22:09:00,65.0,62.3,30.33,NE,56,0.0,0.0,91,0.00,CLR,SCT,0.00,WeatherDisplay:10.37,2013-01-28 03:09:00,
2013-01-27 22:12:00,65.0,62.3,30.33,NE,49,0.0,0.0,91,0.00,CLR,SCT,0.00,WeatherDisplay:10.37,2013-01-28 03:12:00,
2013-01-27 22:13:00,65.0,62.3,30.33,NE,49,0.0,0.0,91,0.00,CLR,SCT,0.00,WeatherDisplay:10.37,2013-01-28 03:13:00,
2013-01-27 22:14:00,65.0,62.3,30.33,NE,49,0.0,0.0,91,0.00,CLR,SCT,0.00,WeatherDisplay:10.37,2013-01-28 03:14:00,
2013-01-27 22:17:00,65.0,62.3,30.33,ENE,58,1.1,1.1,91,0.00,CLR,SCT,0.00,WeatherDisplay:10.37,2013-01-28 03:17:00,
2013-01-27 22:19:00,65.0,62.6,30.33,NE,53,1.1,1.1,92,0.00,CLR,SCT,0.00,WeatherDisplay:10.37,2013-01-28 03:19:00,
2013-01-27 22:22:00,65.1,62.7,30.33,North,358,1.1,1.1,92,0.00,CLR,SCT,0.00,WeatherDisplay:10.37,2013-01-28 03:22:00,
2013-01-27 22:24:00,65.1,62.7,30.33,North,358,0.0,0.0,92,0.00,CLR,SCT,0.00,WeatherDisplay:10.37,2013-01-28 03:24:00,
2013-01-27 22:27:00,65.2,62.8,30.33,NE,39,2.0,2.0,92,0.00,CLR,SCT,0.00,WeatherDisplay:10.37,2013-01-28 03:27:00,
2013-01-27 22:29:00,65.2,62.8,30.33,NE,41,2.3,0.0,92,0.00,CLR,SCT,0.00,WeatherDisplay:10.37,2013-01-28 03:29:00,
2013-01-27 22:32:00,65.3,62.9,30.33,NE,37,0.0,0.0,92,0.00,CLR,SCT,0.00,WeatherDisplay:10.37,2013-01-28 03:32:00,
2013-01-27 22:34:00,65.2,62.8,30.33,NE,40,1.1,1.1,92,0.00,CLR,SCT,0.00,WeatherDisplay:10.37,2013-01-28 03:34:00,
2013-01-27 22:38:00,65.3,62.9,30.33,NE,44,1.1,1.1,92,0.00,CLR,SCT,0.00,WeatherDisplay:10.37,2013-01-28 03:38:00,
2013-01-27 22:39:00,65.4,63.0,30.33,NNE,30,1.1,1.1,92,0.00,CLR,SCT,0.00,WeatherDisplay:10.37,2013-01-28 03:39:00,
2013-01-27 22:43:00,65.4,63.0,30.33,ENE,58,0.0,0.1,92,0.00,CLR,SCT,0.00,WeatherDisplay:10.37,2013-01-28 03:43:00,
2013-01-27 22:44:00,65.4,63.0,30.33,NE,51,1.1,1.1,92,0.00,CLR,SCT,0.00,WeatherDisplay:10.37,2013-01-28 03:44:00,
2013-01-27 22:48:00,65.4,63.0,30.33,NE,55,2.3,2.3,92,0.00,CLR,SCT,0.00,WeatherDisplay:10.37,2013-01-28 03:48:00,
2013-01-27 22:49:00,65.4,63.0,30.33,NE,55,0.0,0.0,92,0.00,CLR,SCT,0.00,WeatherDisplay:10.37,2013-01-28 03:49:00,
2013-01-27 22:50:00,65.3,62.9,30.33,NE,55,0.0,0.0,92,0.00,CLR,SCT,0.00,WeatherDisplay:10.37,2013-01-28 03:50:00,
2013-01-27 22:53:00,65.3,62.9,30.33,NE,56,0.0,0.0,92,0.00,CLR,SCT,0.00,WeatherDisplay:10.37,2013-01-28 03:53:00,
2013-01-27 22:54:00,65.3,62.9,30.33,NE,56,1.1,0.0,92,0.00,CLR,SCT,0.00,WeatherDisplay:10.37,2013-01-28 03:54:00,
2013-01-27 22:55:00,65.3,62.9,30.33,NE,55,0.0,0.0,92,0.00,CLR,SCT,0.00,WeatherDisplay:10.37,2013-01-28 03:55:00,
2013-01-27 22:58:00,65.4,63.0,30.33,ENE,68,1.0,1.0,92,0.00,CLR,SCT,0.00,WeatherDisplay:10.37,2013-01-28 03:58:00,
2013-01-27 22:59:00,65.4,63.0,30.33,ENE,67,1.1,0.0,92,0.00,CLR,SCT,0.00,WeatherDisplay:10.37,2013-01-28 03:59:00,
2013-01-27 23:00:00,65.4,63.0,30.33,NE,49,1.0,1.0,92,0.00,CLR,SCT,0.00,WeatherDisplay:10.37,2013-01-28 04:00:00,
2013-01-27 23:04:00,65.5,63.1,30.33,ENE,65,1.1,0.0,92,0.00,CLR,SCT,0.00,WeatherDisplay:10.37,2013-01-28 04:04:00,
2013-01-27 23:05:00,65.5,63.1,30.33,NE,53,1.1,1.1,92,0.00,CLR,SCT,0.00,WeatherDisplay:10.37,2013-01-28 04:05:00,
2013-01-27 23:09:00,65.6,63.2,30.33,WNW,300,1.1,1.1,92,0.00,CLR,SCT,0.00,WeatherDisplay:10.37,2013-01-28 04:09:00,
2013-01-27 23:10:00,65.7,63.3,30.33,North,358,0.0,0.0,92,0.00,CLR,SCT,0.00,WeatherDisplay:10.37,2013-01-28 04:10:00,
2013-01-27 23:14:00,65.8,63.4,30.33,NE,56,1.1,1.1,92,0.00,CLR,SCT,0.00,WeatherDisplay:10.37,2013-01-28 04:14:00,
2013-01-27 23:15:00,65.8,63.4,30.33,NE,55,1.1,0.0,92,0.00,CLR,SCT,0.00,WeatherDisplay:10.37,2013-01-28 04:15:00,
2013-01-27 23:19:00,65.8,63.4,30.33,NE,53,1.0,0.0,92,0.00,CLR,SCT,0.00,WeatherDisplay:10.37,2013-01-28 04:19:00,
2013-01-27 23:20:00,65.8,63.4,30.33,NE,46,1.1,1.1,92,0.00,CLR,SCT,0.00,WeatherDisplay:10.37,2013-01-28 04:20:00,
2013-01-27 23:24:00,65.8,63.4,30.33,NE,56,0.0,0.1,92,0.00,CLR,SCT,0.00,WeatherDisplay:10.37,2013-01-28 04:24:00,
2013-01-27 23:25:00,65.8,63.4,30.32,NE,55,1.1,1.1,92,0.00,CLR,SCT,0.00,WeatherDisplay:10.37,2013-01-28 04:25:00,
2013-01-27 23:26:00,65.8,63.4,30.32,East,94,0.0,0.0,92,0.00,CLR,SCT,0.00,WeatherDisplay:10.37,2013-01-28 04:26:00,
2013-01-27 23:29:00,65.8,63.4,30.32,ENE,63,0.0,0.0,92,0.00,CLR,SCT,0.00,WeatherDisplay:10.37,2013-01-28 04:29:00,
2013-01-27 23:30:00,65.8,63.4,30.32,ENE,64,1.1,0.0,92,0.00,CLR,SCT,0.00,WeatherDisplay:10.37,2013-01-28 04:30:00,
2013-01-27 23:31:00,65.8,63.4,30.32,ENE,63,1.1,0.0,92,0.00,CLR,SCT,0.00,WeatherDisplay:10.37,2013-01-28 04:31:00,
2013-01-27 23:34:00,65.7,63.3,30.32,ENE,70,1.1,1.1,92,0.00,CLR,SCT,0.00,WeatherDisplay:10.37,2013-01-28 04:34:00,
2013-01-27 23:35:00,65.7,63.3,30.32,NE,40,2.3,2.3,92,0.00,CLR,SCT,0.00,WeatherDisplay:10.37,2013-01-28 04:35:00,
2013-01-27 23:36:00,65.7,63.3,30.32,NE,40,1.1,1.1,92,0.00,CLR,SCT,0.00,WeatherDisplay:10.37,2013-01-28 04:36:00,
2013-01-27 23:39:00,65.7,63.3,30.32,NE,46,0.0,0.0,92,0.00,CLR,SCT,0.00,WeatherDisplay:10.37,2013-01-28 04:39:00,
2013-01-27 23:40:00,65.7,63.3,30.32,ENE,58,0.0,0.0,92,0.00,CLR,SCT,0.00,WeatherDisplay:10.37,2013-01-28 04:40:00,
2013-01-27 23:41:00,65.7,63.3,30.32,ENE,58,0.0,0.0,92,0.00,CLR,SCT,0.00,WeatherDisplay:10.37,2013-01-28 04:41:00,
2013-01-27 23:44:00,65.7,63.3,30.32,ENE,58,0.0,0.0,92,0.00,CLR,SCT,0.00,WeatherDisplay:10.37,2013-01-28 04:44:00,
2013-01-27 23:46:00,65.7,63.3,30.32,ENE,58,0.0,0.0,92,0.00,CLR,SCT,0.00,WeatherDisplay:10.37,2013-01-28 04:46:00,
2013-01-27 23:50:00,65.6,63.5,30.32,ESE,112,0.0,0.0,93,0.00,CLR,SCT,0.00,WeatherDisplay:10.37,2013-01-28 04:50:00,
2013-01-27 23:51:00,65.6,63.5,30.32,ESE,111,0.0,0.0,93,0.00,CLR,SCT,0.00,WeatherDisplay:10.37,2013-01-28 04:51:00,
2013-01-27 23:55:00,65.6,63.5,30.32,ESE,111,0.0,0.0,93,0.00,CLR,SCT,0.00,WeatherDisplay:10.37,2013-01-28 04:55:00,
2013-01-27 23:56:00,65.6,63.5,30.32,ESE,111,0.0,0.0,93,0.00,CLR,SCT,0.00,WeatherDisplay:10.37,2013-01-28 04:56:00,